Time,TemperatureF,DewpointF,PressureIn,WindDirection,WindDirectionDegrees,WindSpeedMPH,WindSpeedGustMPH,Humidity,HourlyPrecipIn,Conditions,Clouds,dailyrainin,SoftwareType,DateUTC
2013-01-15 00:00:00,26.0,22.9,30.41,North,355,5.0,5.0,88,0.00,,,0.00,Wunderground v.1.15,2013-01-15 05:00:00,
2013-01-15 00:03:00,26.1,22.8,30.41,North,355,2.0,5.0,87,0.00,,,0.00,Wunderground v.1.15,2013-01-15 05:03:00,
2013-01-15 00:08:00,26.1,22.8,30.41,North,355,3.0,5.0,87,0.00,,,0.00,Wunderground v.1.15,2013-01-15 05:08:00,
2013-01-15 00:09:00,26.1,23.0,30.41,North,360,6.0,6.0,88,0.00,,,0.00,Wunderground v.1.15,2013-01-15 05:09:00,
2013-01-15 00:10:00,26.1,22.8,30.41,North,355,3.0,6.0,87,0.00,,,0.00,Wunderground v.1.15,2013-01-15 05:10:00,
2013-01-15 00:11:00,26.1,22.8,30.41,North,355,5.0,5.0,87,0.00,,,0.00,Wunderground v.1.15,2013-01-15 05:11:00,
2013-01-15 00:14:00,26.1,22.8,30.41,NNW,346,4.0,5.0,87,0.00,,,0.00,Wunderground v.1.15,2013-01-15 05:14:00,
2013-01-15 00:18:00,26.1,22.8,30.41,NNW,338,6.0,7.0,87,0.00,,,0.00,Wunderground v.1.15,2013-01-15 05:18:00,
2013-01-15 00:19:00,26.1,22.8,30.41,NNW,345,3.0,7.0,87,0.00,,,0.00,Wunderground v.1.15,2013-01-15 05:19:00,
2013-01-15 00:20:00,26.2,22.9,30.41,NNW,344,3.0,4.0,87,0.00,,,0.00,Wunderground v.1.15,2013-01-15 05:20:00,
2013-01-15 00:23:00,26.2,22.9,30.41,NNE,24,3.0,4.0,87,0.00,,,0.00,Wunderground v.1.15,2013-01-15 05:23:00,
2013-01-15 00:24:00,26.1,22.8,30.41,North,360,3.0,4.0,87,0.00,,,0.00,Wunderground v.1.15,2013-01-15 05:24:00,
2013-01-15 00:26:00,26.1,22.8,30.41,NNW,344,2.0,4.0,87,0.00,,,0.00,Wunderground v.1.15,2013-01-15 05:26:00,
2013-01-15 00:27:00,26.1,22.8,30.41,NNW,344,1.0,4.0,87,0.00,,,0.00,Wunderground v.1.15,2013-01-15 05:27:00,
2013-01-15 00:30:00,26.2,22.9,30.41,North,5,1.0,4.0,87,0.00,,,0.00,Wunderground v.1.15,2013-01-15 05:30:00,
2013-01-15 00:31:00,26.2,22.9,30.41,NNE,32,5.0,5.0,87,0.00,,,0.00,Wunderground v.1.15,2013-01-15 05:31:00,
2013-01-15 00:32:00,26.2,22.9,30.41,NNE,32,4.0,5.0,87,0.00,,,0.00,Wunderground v.1.15,2013-01-15 05:32:00,
2013-01-15 00:35:00,26.2,22.9,30.41,NNE,26,1.0,5.0,87,0.00,,,0.00,Wunderground v.1.15,2013-01-15 05:35:00,
2013-01-15 00:38:00,26.2,22.9,30.41,NNE,30,0.0,5.0,87,0.00,,,0.00,Wunderground v.1.15,2013-01-15 05:38:00,
2013-01-15 00:39:00,26.2,22.9,30.41,NNE,30,2.0,5.0,87,0.00,,,0.00,Wunderground v.1.15,2013-01-15 05:39:00,
2013-01-15 00:44:00,26.2,22.9,30.41,NNE,19,5.0,6.0,87,0.00,,,0.00,Wunderground v.1.15,2013-01-15 05:44:00,
2013-01-15 00:48:00,26.3,23.0,30.41,NE,42,2.0,6.0,87,0.00,,,0.00,Wunderground v.1.15,2013-01-15 05:48:00,
2013-01-15 00:49:00,26.3,23.0,30.41,NE,42,4.0,6.0,87,0.00,,,0.00,Wunderground v.1.15,2013-01-15 05:49:00,
2013-01-15 00:51:00,26.3,23.0,30.41,NNW,344,4.0,4.0,87,0.00,,,0.00,Wunderground v.1.15,2013-01-15 05:51:00,
2013-01-15 00:55:00,26.3,22.7,30.41,NNE,13,2.0,6.0,86,0.00,,,0.00,Wunderground v.1.15,2013-01-15 05:55:00,
2013-01-15 00:56:00,26.3,22.7,30.41,NNE,29,3.0,6.0,86,0.00,,,0.00,Wunderground v.1.15,2013-01-15 05:56:00,
2013-01-15 00:57:00,26.3,22.7,30.41,NNW,344,3.0,6.0,86,0.00,,,0.00,Wunderground v.1.15,2013-01-15 05:57:00,
2013-01-15 01:00:00,26.3,22.7,30.41,NNE,21,5.0,6.0,86,0.00,,,0.00,Wunderground v.1.15,2013-01-15 06:00:00,
2013-01-15 01:03:00,26.3,22.7,30.41,North,355,7.0,7.0,86,0.00,,,0.00,Wunderground v.1.15,2013-01-15 06:03:00,
2013-01-15 01:07:00,26.2,22.3,30.41,NNE,24,7.0,7.0,85,0.00,,,0.00,Wunderground v.1.15,2013-01-15 06:07:00,
2013-01-15 01:09:00,26.2,22.3,30.41,NNE,28,5.0,7.0,85,0.00,,,0.00,Wunderground v.1.15,2013-01-15 06:09:00,
2013-01-15 01:11:00,26.2,22.3,30.41,North,355,5.0,7.0,85,0.00,,,0.00,Wunderground v.1.15,2013-01-15 06:11:00,
2013-01-15 01:14:00,26.2,22.3,30.41,North,360,5.0,7.0,85,0.00,,,0.00,Wunderground v.1.15,2013-01-15 06:14:00,
2013-01-15 01:17:00,26.2,22.3,30.41,NNW,344,4.0,7.0,85,0.00,,,0.00,Wunderground v.1.15,2013-01-15 06:17:00,
2013-01-15 01:18:00,26.2,22.3,30.41,North,350,6.0,7.0,85,0.00,,,0.00,Wunderground v.1.15,2013-01-15 06:18:00,
2013-01-15 01:22:00,26.1,22.2,30.41,North,351,5.0,5.0,85,0.00,,,0.00,Wunderground v.1.15,2013-01-15 06:22:00,
2013-01-15 01:25:00,26.1,22.2,30.42,North,10,6.0,6.0,85,0.00,,,0.00,Wunderground v.1.15,2013-01-15 06:25:00,
2013-01-15 01:26:00,26.1,22.2,30.41,NNE,15,5.0,6.0,85,0.00,,,0.00,Wunderground v.1.15,2013-01-15 06:26:00,
2013-01-15 01:30:00,26.0,22.1,30.41,NNE,15,9.0,9.0,85,0.00,,,0.00,Wunderground v.1.15,2013-01-15 06:30:00,
2013-01-15 01:32:00,26.0,22.1,30.41,NNE,22,4.0,5.0,85,0.00,,,0.00,Wunderground v.1.15,2013-01-15 06:32:00,
2013-01-15 01:33:00,26.0,22.1,30.41,NNE,17,1.0,5.0,85,0.00,,,0.00,Wunderground v.1.15,2013-01-15 06:33:00,
2013-01-15 01:35:00,26.1,22.2,30.41,NNE,28,6.0,6.0,85,0.00,,,0.00,Wunderground v.1.15,2013-01-15 06:35:00,
2013-01-15 01:36:00,26.1,22.2,30.41,NNE,24,8.0,8.0,85,0.00,,,0.00,Wunderground v.1.15,2013-01-15 06:36:00,
2013-01-15 01:38:00,26.0,22.1,30.41,NNE,18,7.0,8.0,85,0.00,,,0.00,Wunderground v.1.15,2013-01-15 06:38:00,
2013-01-15 01:40:00,26.0,22.1,30.41,NNE,19,3.0,8.0,85,0.00,,,0.00,Wunderground v.1.15,2013-01-15 06:40:00,
2013-01-15 01:41:00,26.0,22.1,30.41,North,355,1.0,4.0,85,0.00,,,0.00,Wunderground v.1.15,2013-01-15 06:41:00,
2013-01-15 01:42:00,26.0,22.1,30.41,NE,43,7.0,7.0,85,0.00,,,0.00,Wunderground v.1.15,2013-01-15 06:42:00,
2013-01-15 01:44:00,26.0,22.1,30.41,NNE,12,2.0,7.0,85,0.00,,,0.00,Wunderground v.1.15,2013-01-15 06:44:00,
2013-01-15 01:46:00,26.1,22.2,30.41,NNE,28,4.0,7.0,85,0.00,,,0.00,Wunderground v.1.15,2013-01-15 06:46:00,
2013-01-15 01:49:00,26.0,22.1,30.41,NNE,21,8.0,8.0,85,0.00,,,0.00,Wunderground v.1.15,2013-01-15 06:49:00,
2013-01-15 01:51:00,26.0,22.1,30.41,NNE,33,3.0,4.0,85,0.00,,,0.00,Wunderground v.1.15,2013-01-15 06:51:00,
2013-01-15 01:55:00,26.0,22.1,30.41,NNE,17,8.0,8.0,85,0.00,,,0.00,Wunderground v.1.15,2013-01-15 06:55:00,
2013-01-15 01:57:00,26.1,22.2,30.41,NNE,19,2.0,8.0,85,0.00,,,0.00,Wunderground v.1.15,2013-01-15 06:57:00,
2013-01-15 01:58:00,26.1,22.2,30.41,NNW,348,3.0,8.0,85,0.00,,,0.00,Wunderground v.1.15,2013-01-15 06:58:00,
2013-01-15 02:01:00,26.1,22.2,30.42,North,9,5.0,5.0,85,0.00,,,0.00,Wunderground v.1.15,2013-01-15 07:01:00,
2013-01-15 02:02:00,26.1,22.2,30.41,North,351,3.0,5.0,85,0.00,,,0.00,Wunderground v.1.15,2013-01-15 07:02:00,
2013-01-15 02:03:00,26.1,22.2,30.41,North,11,4.0,9.0,85,0.00,,,0.00,Wunderground v.1.15,2013-01-15 07:03:00,
2013-01-15 02:06:00,26.1,22.2,30.41,NNE,19,8.0,9.0,85,0.00,,,0.00,Wunderground v.1.15,2013-01-15 07:06:00,
2013-01-15 02:07:00,26.1,22.2,30.41,NNE,13,8.0,10.0,85,0.00,,,0.00,Wunderground v.1.15,2013-01-15 07:07:00,
2013-01-15 02:08:00,26.0,22.1,30.41,North,351,5.0,10.0,85,0.00,,,0.00,Wunderground v.1.15,2013-01-15 07:08:00,
2013-01-15 02:11:00,26.0,22.1,30.41,NNE,28,5.0,7.0,85,0.00,,,0.00,Wunderground v.1.15,2013-01-15 07:11:00,
2013-01-15 02:12:00,26.0,22.1,30.41,NNE,25,2.0,7.0,85,0.00,,,0.00,Wunderground v.1.15,2013-01-15 07:12:00,
2013-01-15 02:13:00,26.0,22.1,30.41,NNE,25,3.0,7.0,85,0.00,,,0.00,Wunderground v.1.15,2013-01-15 07:13:00,
2013-01-15 02:14:00,26.0,22.1,30.41,NE,53,5.0,7.0,85,0.00,,,0.00,Wunderground v.1.15,2013-01-15 07:14:00,
2013-01-15 02:16:00,26.0,22.1,30.41,North,9,4.0,8.0,85,0.00,,,0.00,Wunderground v.1.15,2013-01-15 07:16:00,
2013-01-15 02:17:00,26.0,22.1,30.41,NE,52,2.0,8.0,85,0.00,,,0.00,Wunderground v.1.15,2013-01-15 07:17:00,
2013-01-15 02:18:00,26.0,22.1,30.41,North,10,7.0,8.0,85,0.00,,,0.00,Wunderground v.1.15,2013-01-15 07:18:00,
2013-01-15 02:19:00,26.0,22.1,30.41,North,355,4.0,8.0,85,0.00,,,0.00,Wunderground v.1.15,2013-01-15 07:19:00,
2013-01-15 02:21:00,26.0,22.1,30.41,North,5,6.0,7.0,85,0.00,,,0.00,Wunderground v.1.15,2013-01-15 07:21:00,
2013-01-15 02:22:00,26.0,22.1,30.41,North,351,5.0,7.0,85,0.00,,,0.00,Wunderground v.1.15,2013-01-15 07:22:00,
2013-01-15 02:23:00,26.0,22.1,30.41,North,360,5.0,7.0,85,0.00,,,0.00,Wunderground v.1.15,2013-01-15 07:23:00,
2013-01-15 02:24:00,26.0,22.1,30.41,North,5,5.0,7.0,85,0.00,,,0.00,Wunderground v.1.15,2013-01-15 07:24:00,
2013-01-15 02:26:00,26.0,22.1,30.41,North,5,7.0,7.0,85,0.00,,,0.00,Wunderground v.1.15,2013-01-15 07:26:00,
2013-01-15 02:28:00,26.0,21.8,30.41,NE,34,5.0,10.0,84,0.00,,,0.00,Wunderground v.1.15,2013-01-15 07:28:00,
2013-01-15 02:29:00,26.0,21.8,30.41,NNE,29,5.0,10.0,84,0.00,,,0.00,Wunderground v.1.15,2013-01-15 07:29:00,
2013-01-15 02:30:00,26.0,21.8,30.41,North,11,3.0,10.0,84,0.00,,,0.00,Wunderground v.1.15,2013-01-15 07:30:00,
2013-01-15 02:31:00,25.9,21.7,30.41,North,11,11.0,11.0,84,0.00,,,0.00,Wunderground v.1.15,2013-01-15 07:31:00,
2013-01-15 02:33:00,25.9,21.7,30.41,North,355,7.0,12.0,84,0.00,,,0.00,Wunderground v.1.15,2013-01-15 07:33:00,
2013-01-15 02:35:00,25.9,21.7,30.41,North,11,6.0,12.0,84,0.00,,,0.00,Wunderground v.1.15,2013-01-15 07:35:00,
2013-01-15 02:37:00,25.8,21.6,30.41,NNE,30,7.0,12.0,84,0.00,,,0.00,Wunderground v.1.15,2013-01-15 07:37:00,
2013-01-15 02:39:00,25.8,21.6,30.41,NNE,29,5.0,12.0,84,0.00,,,0.00,Wunderground v.1.15,2013-01-15 07:39:00,
2013-01-15 02:41:00,25.8,21.6,30.41,North,350,3.0,6.0,84,0.00,,,0.00,Wunderground v.1.15,2013-01-15 07:41:00,
2013-01-15 02:42:00,25.8,21.6,30.41,NNE,19,3.0,6.0,84,0.00,,,0.00,Wunderground v.1.15,2013-01-15 07:42:00,
2013-01-15 02:44:00,25.8,21.6,30.41,NNE,16,5.0,7.0,84,0.00,,,0.00,Wunderground v.1.15,2013-01-15 07:44:00,
2013-01-15 02:46:00,25.7,21.5,30.41,NE,34,1.0,7.0,84,0.00,,,0.00,Wunderground v.1.15,2013-01-15 07:46:00,
2013-01-15 02:47:00,25.7,21.5,30.41,NNE,23,5.0,8.0,84,0.00,,,0.00,Wunderground v.1.15,2013-01-15 07:47:00,
2013-01-15 02:50:00,25.7,21.5,30.41,North,355,3.0,8.0,84,0.00,,,0.00,Wunderground v.1.15,2013-01-15 07:50:00,
2013-01-15 02:51:00,25.7,21.5,30.40,North,5,5.0,5.0,84,0.00,,,0.00,Wunderground v.1.15,2013-01-15 07:51:00,
2013-01-15 02:52:00,25.7,21.5,30.41,NNE,31,4.0,5.0,84,0.00,,,0.00,Wunderground v.1.15,2013-01-15 07:52:00,
2013-01-15 02:53:00,25.7,21.5,30.40,NNE,31,3.0,5.0,84,0.00,,,0.00,Wunderground v.1.15,2013-01-15 07:53:00,
2013-01-15 02:55:00,25.6,21.4,30.40,North,11,2.0,5.0,84,0.00,,,0.00,Wunderground v.1.15,2013-01-15 07:55:00,
2013-01-15 02:56:00,25.6,21.4,30.40,NNE,15,2.0,5.0,84,0.00,,,0.00,Wunderground v.1.15,2013-01-15 07:56:00,
2013-01-15 02:58:00,25.6,21.7,30.40,NNE,18,3.0,5.0,85,0.00,,,0.00,Wunderground v.1.15,2013-01-15 07:58:00,
2013-01-15 03:00:00,25.5,21.6,30.40,NNE,22,3.0,6.0,85,0.00,,,0.00,Wunderground v.1.15,2013-01-15 08:00:00,
2013-01-15 03:01:00,25.5,21.6,30.40,NNE,26,4.0,5.0,85,0.00,,,0.00,Wunderground v.1.15,2013-01-15 08:01:00,
2013-01-15 03:03:00,25.5,21.6,30.40,NNE,28,4.0,7.0,85,0.00,,,0.00,Wunderground v.1.15,2013-01-15 08:03:00,
2013-01-15 03:05:00,25.4,21.5,30.40,NNE,32,3.0,7.0,85,0.00,,,0.00,Wunderground v.1.15,2013-01-15 08:05:00,
2013-01-15 03:06:00,25.4,21.5,30.41,North,5,3.0,7.0,85,0.00,,,0.00,Wunderground v.1.15,2013-01-15 08:06:00,
2013-01-15 03:08:00,25.4,21.5,30.40,NNE,18,0.0,7.0,85,0.00,,,0.00,Wunderground v.1.15,2013-01-15 08:08:00,
2013-01-15 03:09:00,25.4,21.5,30.40,NNE,18,2.0,7.0,85,0.00,,,0.00,Wunderground v.1.15,2013-01-15 08:09:00,
2013-01-15 03:11:00,25.4,21.5,30.40,NNE,22,3.0,3.0,85,0.00,,,0.00,Wunderground v.1.15,2013-01-15 08:11:00,
2013-01-15 03:13:00,25.3,21.4,30.40,NNE,24,1.0,4.0,85,0.00,,,0.00,Wunderground v.1.15,2013-01-15 08:13:00,
2013-01-15 03:14:00,25.3,21.4,30.40,NNE,24,0.0,4.0,85,0.00,,,0.00,Wunderground v.1.15,2013-01-15 08:14:00,
2013-01-15 03:17:00,25.3,21.4,30.40,NNE,24,3.0,5.0,85,0.00,,,0.00,Wunderground v.1.15,2013-01-15 08:17:00,
2013-01-15 03:18:00,25.2,21.3,30.40,NNE,24,0.0,5.0,85,0.00,,,0.00,Wunderground v.1.15,2013-01-15 08:18:00,
2013-01-15 03:21:00,25.2,21.3,30.40,NNE,24,5.0,5.0,85,0.00,,,0.00,Wunderground v.1.15,2013-01-15 08:21:00,
2013-01-15 03:22:00,25.2,21.3,30.40,NNE,24,4.0,5.0,85,0.00,,,0.00,Wunderground v.1.15,2013-01-15 08:22:00,
2013-01-15 03:23:00,25.2,21.6,30.40,NNE,25,2.0,6.0,86,0.00,,,0.00,Wunderground v.1.15,2013-01-15 08:23:00,
2013-01-15 03:26:00,25.1,21.5,30.40,NNE,25,0.0,6.0,86,0.00,,,0.00,Wunderground v.1.15,2013-01-15 08:26:00,
2013-01-15 03:27:00,25.1,21.5,30.40,NNE,25,4.0,6.0,86,0.00,,,0.00,Wunderground v.1.15,2013-01-15 08:27:00,
2013-01-15 03:28:00,25.1,21.5,30.40,NNE,25,2.0,6.0,86,0.00,,,0.00,Wunderground v.1.15,2013-01-15 08:28:00,
2013-01-15 03:32:00,25.0,21.4,30.40,NNE,25,3.0,4.0,86,0.00,,,0.00,Wunderground v.1.15,2013-01-15 08:32:00,
2013-01-15 03:33:00,24.9,21.3,30.40,NNE,25,2.0,4.0,86,0.00,,,0.00,Wunderground v.1.15,2013-01-15 08:33:00,
2013-01-15 03:37:00,24.9,21.3,30.40,North,11,1.0,4.0,86,0.00,,,0.00,Wunderground v.1.15,2013-01-15 08:37:00,
2013-01-15 03:39:00,24.8,21.2,30.40,NNE,22,3.0,4.0,86,0.00,,,0.00,Wunderground v.1.15,2013-01-15 08:39:00,
2013-01-15 03:42:00,24.8,21.5,30.40,NNE,22,3.0,4.0,87,0.00,,,0.00,Wunderground v.1.15,2013-01-15 08:42:00,
2013-01-15 03:43:00,24.8,21.5,30.40,NNE,22,3.0,4.0,87,0.00,,,0.00,Wunderground v.1.15,2013-01-15 08:43:00,
2013-01-15 03:44:00,24.8,21.5,30.40,NNE,28,4.0,4.0,87,0.00,,,0.00,Wunderground v.1.15,2013-01-15 08:44:00,
2013-01-15 03:47:00,24.7,21.4,30.40,NNE,31,3.0,5.0,87,0.00,,,0.00,Wunderground v.1.15,2013-01-15 08:47:00,
2013-01-15 03:48:00,24.7,21.4,30.40,NNE,31,3.0,5.0,87,0.00,,,0.00,Wunderground v.1.15,2013-01-15 08:48:00,
2013-01-15 03:49:00,24.7,21.4,30.40,NNE,31,2.0,5.0,87,0.00,,,0.00,Wunderground v.1.15,2013-01-15 08:49:00,
2013-01-15 03:53:00,24.7,21.4,30.40,NNE,31,0.0,3.0,87,0.00,,,0.00,Wunderground v.1.15,2013-01-15 08:53:00,
2013-01-15 03:54:00,24.7,21.4,30.40,NNE,31,1.0,3.0,87,0.00,,,0.00,Wunderground v.1.15,2013-01-15 08:54:00,
2013-01-15 03:58:00,24.6,21.3,30.40,NNE,31,0.0,3.0,87,0.00,,,0.00,Wunderground v.1.15,2013-01-15 08:58:00,
2013-01-15 03:59:00,24.5,21.2,30.40,NNE,31,0.0,3.0,87,0.00,,,0.00,Wunderground v.1.15,2013-01-15 08:59:00,
2013-01-15 04:03:00,24.4,21.1,30.40,NNE,31,0.0,1.0,87,0.00,,,0.00,Wunderground v.1.15,2013-01-15 09:03:00,
2013-01-15 04:04:00,24.4,21.1,30.40,NNE,31,0.0,1.0,87,0.00,,,0.00,Wunderground v.1.15,2013-01-15 09:04:00,
2013-01-15 04:05:00,24.4,21.1,30.40,NNE,31,0.0,1.0,87,0.00,,,0.00,Wunderground v.1.15,2013-01-15 09:05:00,
2013-01-15 04:09:00,24.3,21.0,30.40,NNE,31,0.0,1.0,87,0.00,,,0.00,Wunderground v.1.15,2013-01-15 09:09:00,
2013-01-15 04:10:00,24.3,21.0,30.40,NNE,31,0.0,1.0,87,0.00,,,0.00,Wunderground v.1.15,2013-01-15 09:10:00,
2013-01-15 04:14:00,24.2,21.2,30.40,NNE,31,0.0,0.0,88,0.00,,,0.00,Wunderground v.1.15,2013-01-15 09:14:00,
2013-01-15 04:15:00,24.2,21.2,30.40,NNE,31,0.0,3.0,88,0.00,,,0.00,Wunderground v.1.15,2013-01-15 09:15:00,
2013-01-15 04:19:00,24.1,21.1,30.40,NNE,31,0.0,3.0,88,0.00,,,0.00,Wunderground v.1.15,2013-01-15 09:19:00,
2013-01-15 04:20:00,24.1,21.1,30.40,NNE,31,0.0,3.0,88,0.00,,,0.00,Wunderground v.1.15,2013-01-15 09:20:00,
2013-01-15 04:24:00,24.0,21.0,30.40,NNE,31,1.0,3.0,88,0.00,,,0.00,Wunderground v.1.15,2013-01-15 09:24:00,
2013-01-15 04:25:00,24.0,21.0,30.40,NNE,31,2.0,3.0,88,0.00,,,0.00,Wunderground v.1.15,2013-01-15 09:25:00,
2013-01-15 04:29:00,24.0,21.2,30.40,NNE,31,0.0,3.0,89,0.00,,,0.00,Wunderground v.1.15,2013-01-15 09:29:00,
2013-01-15 04:30:00,23.9,21.1,30.40,NNE,31,0.0,3.0,89,0.00,,,0.00,Wunderground v.1.15,2013-01-15 09:30:00,
2013-01-15 04:34:00,23.9,21.1,30.40,NNE,31,0.0,1.0,89,0.00,,,0.00,Wunderground v.1.15,2013-01-15 09:34:00,
2013-01-15 04:35:00,23.8,21.0,30.40,NNE,31,0.0,1.0,89,0.00,,,0.00,Wunderground v.1.15,2013-01-15 09:35:00,
2013-01-15 04:37:00,23.8,21.0,30.40,NNE,31,0.0,1.0,89,0.00,,,0.00,Wunderground v.1.15,2013-01-15 09:37:00,
2013-01-15 04:39:00,23.8,21.0,30.40,NNE,31,0.0,1.0,89,0.00,,,0.00,Wunderground v.1.15,2013-01-15 09:39:00,
2013-01-15 04:41:00,23.8,21.0,30.40,NNE,31,0.0,0.0,89,0.00,,,0.00,Wunderground v.1.15,2013-01-15 09:41:00,
2013-01-15 04:42:00,23.8,21.0,30.40,NNE,31,0.0,0.0,89,0.00,,,0.00,Wunderground v.1.15,2013-01-15 09:42:00,
2013-01-15 04:44:00,23.7,20.9,30.40,NNE,31,0.0,0.0,89,0.00,,,0.00,Wunderground v.1.15,2013-01-15 09:44:00,
2013-01-15 04:46:00,23.7,20.9,30.40,NNE,31,0.0,0.0,89,0.00,,,0.00,Wunderground v.1.15,2013-01-15 09:46:00,
2013-01-15 04:48:00,23.7,20.9,30.40,NNE,31,0.0,0.0,89,0.00,,,0.00,Wunderground v.1.15,2013-01-15 09:48:00,
2013-01-15 04:50:00,23.7,20.9,30.40,NNE,31,0.0,0.0,89,0.00,,,0.00,Wunderground v.1.15,2013-01-15 09:50:00,
2013-01-15 04:51:00,23.7,20.9,30.41,NNE,31,0.0,1.0,89,0.00,,,0.00,Wunderground v.1.15,2013-01-15 09:51:00,
2013-01-15 04:53:00,23.6,20.8,30.41,NNE,31,0.0,1.0,89,0.00,,,0.00,Wunderground v.1.15,2013-01-15 09:53:00,
2013-01-15 04:55:00,23.6,20.8,30.40,NNE,31,1.0,2.0,89,0.00,,,0.00,Wunderground v.1.15,2013-01-15 09:55:00,
2013-01-15 04:57:00,23.6,21.1,30.40,NNE,31,0.0,2.0,90,0.00,,,0.00,Wunderground v.1.15,2013-01-15 09:57:00,
2013-01-15 05:00:00,23.5,21.0,30.41,NNE,31,0.0,2.0,90,0.00,,,0.00,Wunderground v.1.15,2013-01-15 10:00:00,
2013-01-15 05:02:00,23.5,21.0,30.40,NNE,31,1.0,1.0,90,0.00,,,0.00,Wunderground v.1.15,2013-01-15 10:02:00,
2013-01-15 05:05:00,23.5,21.0,30.40,NNE,31,0.0,1.0,90,0.00,,,0.00,Wunderground v.1.15,2013-01-15 10:05:00,
2013-01-15 05:06:00,23.5,21.0,30.40,NNE,31,0.0,1.0,90,0.00,,,0.00,Wunderground v.1.15,2013-01-15 10:06:00,
2013-01-15 05:08:00,23.5,21.0,30.40,NNE,31,3.0,3.0,90,0.00,,,0.00,Wunderground v.1.15,2013-01-15 10:08:00,
2013-01-15 05:10:00,23.5,21.0,30.40,NNE,31,1.0,3.0,90,0.00,,,0.00,Wunderground v.1.15,2013-01-15 10:10:00,
2013-01-15 05:11:00,23.5,21.0,30.40,NNE,31,0.0,0.0,90,0.00,,,0.00,Wunderground v.1.15,2013-01-15 10:11:00,
2013-01-15 05:12:00,23.5,21.0,30.40,NNE,31,0.0,0.0,90,0.00,,,0.00,Wunderground v.1.15,2013-01-15 10:12:00,
2013-01-15 05:14:00,23.5,21.0,30.40,NNE,31,0.0,0.0,90,0.00,,,0.00,Wunderground v.1.15,2013-01-15 10:14:00,
2013-01-15 05:15:00,23.5,21.0,30.40,NNE,31,0.0,0.0,90,0.00,,,0.00,Wunderground v.1.15,2013-01-15 10:15:00,
2013-01-15 05:16:00,23.5,21.0,30.40,NNE,31,0.0,0.0,90,0.00,,,0.00,Wunderground v.1.15,2013-01-15 10:16:00,
2013-01-15 05:17:00,23.5,21.0,30.40,NNE,31,0.0,0.0,90,0.00,,,0.00,Wunderground v.1.15,2013-01-15 10:17:00,
2013-01-15 05:19:00,23.5,21.0,30.41,NNE,31,1.0,1.0,90,0.00,,,0.00,Wunderground v.1.15,2013-01-15 10:19:00,
2013-01-15 05:20:00,23.6,21.1,30.41,NNE,31,0.0,0.0,90,0.00,,,0.00,Wunderground v.1.15,2013-01-15 10:20:00,
2013-01-15 05:22:00,23.6,21.1,30.40,NNE,31,0.0,0.0,90,0.00,,,0.00,Wunderground v.1.15,2013-01-15 10:22:00,
2013-01-15 05:24:00,23.6,21.1,30.41,NNE,31,0.0,0.0,90,0.00,,,0.00,Wunderground v.1.15,2013-01-15 10:24:00,
2013-01-15 05:26:00,23.6,21.1,30.41,NNE,31,0.0,0.0,90,0.00,,,0.00,Wunderground v.1.15,2013-01-15 10:26:00,
2013-01-15 05:27:00,23.6,21.1,30.41,NNE,31,1.0,1.0,90,0.00,,,0.00,Wunderground v.1.15,2013-01-15 10:27:00,
2013-01-15 05:30:00,23.7,21.2,30.41,NNE,31,2.0,3.0,90,0.00,,,0.00,Wunderground v.1.15,2013-01-15 10:30:00,
2013-01-15 05:31:00,23.8,21.3,30.41,NNE,31,1.0,3.0,90,0.00,,,0.00,Wunderground v.1.15,2013-01-15 10:31:00,
2013-01-15 05:32:00,23.8,21.6,30.41,NNE,31,0.0,3.0,91,0.00,,,0.00,Wunderground v.1.15,2013-01-15 10:32:00,
2013-01-15 05:33:00,23.9,21.4,30.41,NNE,31,0.0,3.0,90,0.00,,,0.00,Wunderground v.1.15,2013-01-15 10:33:00,
2013-01-15 05:35:00,23.9,21.4,30.41,NNE,31,3.0,3.0,90,0.00,,,0.00,Wunderground v.1.15,2013-01-15 10:35:00,
2013-01-15 05:36:00,23.9,21.4,30.41,NNE,31,0.0,3.0,90,0.00,,,0.00,Wunderground v.1.15,2013-01-15 10:36:00,
2013-01-15 05:37:00,23.9,21.4,30.41,NNE,31,1.0,3.0,90,0.00,,,0.00,Wunderground v.1.15,2013-01-15 10:37:00,
2013-01-15 05:38:00,24.0,21.8,30.41,NNE,31,2.0,3.0,91,0.00,,,0.00,Wunderground v.1.15,2013-01-15 10:38:00,
2013-01-15 05:40:00,24.0,21.8,30.41,NNE,31,0.0,3.0,91,0.00,,,0.00,Wunderground v.1.15,2013-01-15 10:40:00,
2013-01-15 05:42:00,24.0,21.8,30.41,NNE,31,2.0,3.0,91,0.00,,,0.00,Wunderground v.1.15,2013-01-15 10:42:00,
2013-01-15 05:43:00,24.1,21.9,30.41,NNE,31,0.0,3.0,91,0.00,,,0.00,Wunderground v.1.15,2013-01-15 10:43:00,
2013-01-15 05:45:00,24.2,22.0,30.41,NNE,31,0.0,4.0,91,0.00,,,0.00,Wunderground v.1.15,2013-01-15 10:45:00,
2013-01-15 05:48:00,24.2,22.0,30.41,NNE,31,0.0,4.0,91,0.00,,,0.00,Wunderground v.1.15,2013-01-15 10:48:00,
2013-01-15 05:49:00,24.2,22.0,30.41,NNE,31,0.0,4.0,91,0.00,,,0.00,Wunderground v.1.15,2013-01-15 10:49:00,
2013-01-15 05:51:00,24.3,22.1,30.41,NNE,31,0.0,1.0,91,0.00,,,0.00,Wunderground v.1.15,2013-01-15 10:51:00,
2013-01-15 05:53:00,24.4,22.2,30.42,North,355,2.0,5.0,91,0.00,,,0.00,Wunderground v.1.15,2013-01-15 10:53:00,
2013-01-15 05:56:00,24.5,22.2,30.42,NNE,15,3.0,5.0,91,0.00,,,0.00,Wunderground v.1.15,2013-01-15 10:56:00,
2013-01-15 05:58:00,24.5,22.0,30.42,NNE,12,1.0,5.0,90,0.00,,,0.00,Wunderground v.1.15,2013-01-15 10:58:00,
2013-01-15 05:59:00,24.5,22.0,30.42,NNE,12,3.0,5.0,90,0.00,,,0.00,Wunderground v.1.15,2013-01-15 10:59:00,
2013-01-15 06:01:00,24.6,22.3,30.42,North,355,3.0,6.0,91,0.00,,,0.00,Wunderground v.1.15,2013-01-15 11:01:00,
2013-01-15 06:03:00,24.7,22.2,30.42,NNE,32,3.0,6.0,90,0.00,,,0.00,Wunderground v.1.15,2013-01-15 11:03:00,
2013-01-15 06:04:00,24.8,22.3,30.42,NNE,32,0.0,6.0,90,0.00,,,0.00,Wunderground v.1.15,2013-01-15 11:04:00,
2013-01-15 06:06:00,24.8,22.3,30.42,NNE,29,0.0,6.0,90,0.00,,,0.00,Wunderground v.1.15,2013-01-15 11:06:00,
2013-01-15 06:09:00,24.9,22.4,30.42,NNE,24,5.0,6.0,90,0.00,,,0.00,Wunderground v.1.15,2013-01-15 11:09:00,
2013-01-15 06:11:00,25.0,22.5,30.42,NNW,337,4.0,5.0,90,0.00,,,0.00,Wunderground v.1.15,2013-01-15 11:11:00,
2013-01-15 06:15:00,25.1,22.6,30.42,NNE,21,3.0,9.0,90,0.00,,,0.00,Wunderground v.1.15,2013-01-15 11:15:00,
2013-01-15 06:16:00,25.2,22.7,30.42,NE,46,3.0,9.0,90,0.00,,,0.00,Wunderground v.1.15,2013-01-15 11:16:00,
2013-01-15 06:17:00,25.2,22.7,30.42,NNE,24,6.0,9.0,90,0.00,,,0.00,Wunderground v.1.15,2013-01-15 11:17:00,
2013-01-15 06:20:00,25.3,22.5,30.42,NNE,16,5.0,9.0,89,0.00,,,0.00,Wunderground v.1.15,2013-01-15 11:20:00,
2013-01-15 06:22:00,25.3,22.5,30.42,NNE,28,2.0,8.0,89,0.00,,,0.00,Wunderground v.1.15,2013-01-15 11:22:00,
2013-01-15 06:25:00,25.4,22.6,30.42,NNE,20,3.0,8.0,89,0.00,,,0.00,Wunderground v.1.15,2013-01-15 11:25:00,
2013-01-15 06:26:00,25.4,22.6,30.42,NNE,24,3.0,8.0,89,0.00,,,0.00,Wunderground v.1.15,2013-01-15 11:26:00,
2013-01-15 06:27:00,25.4,22.6,30.42,North,355,1.0,8.0,89,0.00,,,0.00,Wunderground v.1.15,2013-01-15 11:27:00,
2013-01-15 06:30:00,25.4,22.6,30.42,North,9,4.0,4.0,89,0.00,,,0.00,Wunderground v.1.15,2013-01-15 11:30:00,
2013-01-15 06:31:00,25.5,22.7,30.42,North,11,2.0,4.0,89,0.00,,,0.00,Wunderground v.1.15,2013-01-15 11:31:00,
2013-01-15 06:32:00,25.5,22.7,30.42,North,10,8.0,11.0,89,0.00,,,0.00,Wunderground v.1.15,2013-01-15 11:32:00,
2013-01-15 06:33:00,25.5,22.7,30.42,NNE,19,8.0,11.0,89,0.00,,,0.00,Wunderground v.1.15,2013-01-15 11:33:00,
2013-01-15 06:36:00,25.6,22.8,30.42,NE,40,4.0,11.0,89,0.00,,,0.00,Wunderground v.1.15,2013-01-15 11:36:00,
2013-01-15 06:37:00,25.6,22.5,30.42,NE,39,3.0,11.0,88,0.00,,,0.00,Wunderground v.1.15,2013-01-15 11:37:00,
2013-01-15 06:38:00,25.6,22.8,30.42,NNE,12,5.0,11.0,89,0.00,,,0.00,Wunderground v.1.15,2013-01-15 11:38:00,
2013-01-15 06:41:00,25.6,22.5,30.42,NE,34,5.0,6.0,88,0.00,,,0.00,Wunderground v.1.15,2013-01-15 11:41:00,
2013-01-15 06:42:00,25.7,22.6,30.42,NE,45,7.0,7.0,88,0.00,,,0.00,Wunderground v.1.15,2013-01-15 11:42:00,
2013-01-15 06:43:00,25.6,22.5,30.42,NNE,15,4.0,7.0,88,0.00,,,0.00,Wunderground v.1.15,2013-01-15 11:43:00,
2013-01-15 06:46:00,25.6,22.5,30.42,NE,36,1.0,7.0,88,0.00,,,0.00,Wunderground v.1.15,2013-01-15 11:46:00,
2013-01-15 06:47:00,25.7,22.6,30.42,NE,37,2.0,7.0,88,0.00,,,0.00,Wunderground v.1.15,2013-01-15 11:47:00,
2013-01-15 06:48:00,25.7,22.6,30.42,NNE,28,0.0,7.0,88,0.00,,,0.00,Wunderground v.1.15,2013-01-15 11:48:00,
2013-01-15 06:51:00,25.7,22.6,30.42,NNE,20,8.0,9.0,88,0.00,,,0.00,Wunderground v.1.15,2013-01-15 11:51:00,
2013-01-15 06:53:00,25.8,22.7,30.41,NNW,345,3.0,10.0,88,0.00,,,0.00,Wunderground v.1.15,2013-01-15 11:53:00,
2013-01-15 06:55:00,25.8,22.7,30.42,North,355,0.0,10.0,88,0.00,,,0.00,Wunderground v.1.15,2013-01-15 11:55:00,
2013-01-15 06:56:00,25.8,22.7,30.42,North,355,3.0,10.0,88,0.00,,,0.00,Wunderground v.1.15,2013-01-15 11:56:00,
2013-01-15 06:58:00,25.8,22.7,30.42,North,350,4.0,10.0,88,0.00,,,0.00,Wunderground v.1.15,2013-01-15 11:58:00,
2013-01-15 07:00:00,25.9,22.8,30.42,NNE,28,6.0,10.0,88,0.00,,,0.00,Wunderground v.1.15,2013-01-15 12:00:00,
2013-01-15 07:01:00,25.9,22.8,30.42,NNE,32,3.0,6.0,88,0.00,,,0.00,Wunderground v.1.15,2013-01-15 12:01:00,
2013-01-15 07:04:00,26.0,22.9,30.42,NNE,27,2.0,7.0,88,0.00,,,0.00,Wunderground v.1.15,2013-01-15 12:04:00,
2013-01-15 07:05:00,26.0,22.9,30.41,NNE,14,4.0,7.0,88,0.00,,,0.00,Wunderground v.1.15,2013-01-15 12:05:00,
2013-01-15 07:06:00,26.0,22.9,30.41,North,350,3.0,7.0,88,0.00,,,0.00,Wunderground v.1.15,2013-01-15 12:06:00,
2013-01-15 07:07:00,25.9,22.8,30.41,NNE,19,1.0,7.0,88,0.00,,,0.00,Wunderground v.1.15,2013-01-15 12:07:00,
2013-01-15 07:10:00,26.0,22.7,30.41,NNE,14,5.0,7.0,87,0.00,,,0.00,Wunderground v.1.15,2013-01-15 12:10:00,
2013-01-15 07:11:00,26.0,22.7,30.41,North,9,8.0,8.0,87,0.00,,,0.00,Wunderground v.1.15,2013-01-15 12:11:00,
2013-01-15 07:12:00,26.0,22.9,30.41,North,351,6.0,10.0,88,0.00,,,0.00,Wunderground v.1.15,2013-01-15 12:12:00,
2013-01-15 07:15:00,26.0,22.7,30.41,NNE,28,6.0,10.0,87,0.00,,,0.00,Wunderground v.1.15,2013-01-15 12:15:00,
2013-01-15 07:16:00,26.0,22.7,30.41,NNE,27,5.0,10.0,87,0.00,,,0.00,Wunderground v.1.15,2013-01-15 12:16:00,
2013-01-15 07:18:00,26.0,22.7,30.41,NE,51,7.0,11.0,87,0.00,,,0.00,Wunderground v.1.15,2013-01-15 12:18:00,
2013-01-15 07:21:00,26.1,22.8,30.41,NNE,33,2.0,5.0,87,0.00,,,0.00,Wunderground v.1.15,2013-01-15 12:21:00,
2013-01-15 07:23:00,26.1,22.8,30.41,NNE,26,3.0,5.0,87,0.00,,,0.00,Wunderground v.1.15,2013-01-15 12:23:00,
2013-01-15 07:26:00,26.1,22.8,30.41,NNE,27,5.0,8.0,87,0.00,,,0.00,Wunderground v.1.15,2013-01-15 12:26:00,
2013-01-15 07:28:00,26.2,22.9,30.41,NE,45,9.0,10.0,87,0.00,,,0.00,Wunderground v.1.15,2013-01-15 12:28:00,
2013-01-15 07:31:00,26.2,22.6,30.41,North,360,1.0,4.0,86,0.00,,,0.00,Wunderground v.1.15,2013-01-15 12:31:00,
2013-01-15 07:32:00,26.2,22.6,30.41,North,11,2.0,4.0,86,0.00,,,0.00,Wunderground v.1.15,2013-01-15 12:32:00,
2013-01-15 07:33:00,26.2,22.9,30.41,NNE,15,7.0,8.0,87,0.00,,,0.00,Wunderground v.1.15,2013-01-15 12:33:00,
2013-01-15 07:36:00,26.2,22.6,30.41,NE,37,7.0,12.0,86,0.00,,,0.00,Wunderground v.1.15,2013-01-15 12:36:00,
2013-01-15 07:37:00,26.2,22.6,30.41,North,5,6.0,12.0,86,0.00,,,0.00,Wunderground v.1.15,2013-01-15 12:37:00,
2013-01-15 07:38:00,26.2,22.6,30.41,East,94,5.0,12.0,86,0.00,,,0.00,Wunderground v.1.15,2013-01-15 12:38:00,
2013-01-15 07:42:00,26.2,22.6,30.41,NNE,16,6.0,6.0,86,0.00,,,0.00,Wunderground v.1.15,2013-01-15 12:42:00,
2013-01-15 07:43:00,26.2,22.6,30.41,NNE,12,3.0,8.0,86,0.00,,,0.00,Wunderground v.1.15,2013-01-15 12:43:00,
2013-01-15 07:44:00,26.2,22.6,30.41,NNE,15,3.0,8.0,86,0.00,,,0.00,Wunderground v.1.15,2013-01-15 12:44:00,
2013-01-15 07:47:00,26.2,22.6,30.41,NE,40,5.0,8.0,86,0.00,,,0.00,Wunderground v.1.15,2013-01-15 12:47:00,
2013-01-15 07:48:00,26.2,22.6,30.41,NE,38,4.0,8.0,86,0.00,,,0.00,Wunderground v.1.15,2013-01-15 12:48:00,
2013-01-15 07:49:00,26.1,22.5,30.41,NE,35,0.0,8.0,86,0.00,,,0.00,Wunderground v.1.15,2013-01-15 12:49:00,
2013-01-15 07:53:00,26.2,22.6,30.41,NNE,30,6.0,8.0,86,0.00,,,0.00,Wunderground v.1.15,2013-01-15 12:53:00,
2013-01-15 07:54:00,26.2,22.6,30.41,NE,35,8.0,9.0,86,0.00,,,0.00,Wunderground v.1.15,2013-01-15 12:54:00,
2013-01-15 07:58:00,26.2,22.6,30.41,NNE,12,4.0,11.0,86,0.00,,,0.00,Wunderground v.1.15,2013-01-15 12:58:00,
2013-01-15 07:59:00,26.2,22.6,30.41,NNE,22,6.0,11.0,86,0.00,,,0.00,Wunderground v.1.15,2013-01-15 12:59:00,
2013-01-15 08:00:00,26.2,22.6,30.41,NE,41,5.0,11.0,86,0.00,,,0.00,Wunderground v.1.15,2013-01-15 13:00:00,
2013-01-15 08:03:00,26.2,22.3,30.42,NE,41,5.0,10.0,85,0.00,,,0.00,Wunderground v.1.15,2013-01-15 13:03:00,
2013-01-15 08:05:00,26.1,22.2,30.42,NE,42,8.0,10.0,85,0.00,,,0.00,Wunderground v.1.15,2013-01-15 13:05:00,
2013-01-15 08:08:00,26.1,22.2,30.42,NNE,22,5.0,10.0,85,0.00,,,0.00,Wunderground v.1.15,2013-01-15 13:08:00,
2013-01-15 08:10:00,26.1,22.2,30.42,NNE,22,3.0,10.0,85,0.00,,,0.00,Wunderground v.1.15,2013-01-15 13:10:00,
2013-01-15 08:13:00,26.0,22.1,30.42,NNE,13,10.0,12.0,85,0.00,,,0.00,Wunderground v.1.15,2013-01-15 13:13:00,
2013-01-15 08:15:00,26.0,22.1,30.42,WNW,300,3.0,12.0,85,0.00,,,0.00,Wunderground v.1.15,2013-01-15 13:15:00,
2013-01-15 08:18:00,26.0,22.1,30.42,NNE,32,7.0,12.0,85,0.00,,,0.00,Wunderground v.1.15,2013-01-15 13:18:00,
2013-01-15 08:20:00,26.0,22.1,30.42,NNE,31,4.0,12.0,85,0.00,,,0.00,Wunderground v.1.15,2013-01-15 13:20:00,
2013-01-15 08:21:00,26.0,22.1,30.43,NNE,26,4.0,6.0,85,0.00,,,0.00,Wunderground v.1.15,2013-01-15 13:21:00,
2013-01-15 08:24:00,26.0,22.1,30.43,NE,40,6.0,7.0,85,0.00,,,0.00,Wunderground v.1.15,2013-01-15 13:24:00,
2013-01-15 08:25:00,26.0,22.1,30.43,NNE,26,4.0,7.0,85,0.00,,,0.00,Wunderground v.1.15,2013-01-15 13:25:00,
2013-01-15 08:26:00,26.0,22.1,30.43,NNE,29,5.0,8.0,85,0.00,,,0.00,Wunderground v.1.15,2013-01-15 13:26:00,
2013-01-15 08:29:00,26.0,22.1,30.43,NNE,22,1.0,8.0,85,0.00,,,0.00,Wunderground v.1.15,2013-01-15 13:29:00,
2013-01-15 08:30:00,26.0,22.1,30.43,NNE,22,1.0,8.0,85,0.00,,,0.00,Wunderground v.1.15,2013-01-15 13:30:00,
2013-01-15 08:31:00,26.0,22.1,30.43,NNE,22,2.0,3.0,85,0.00,,,0.00,Wunderground v.1.15,2013-01-15 13:31:00,
2013-01-15 08:34:00,26.1,22.2,30.44,East,88,1.0,4.0,85,0.00,,,0.00,Wunderground v.1.15,2013-01-15 13:34:00,
2013-01-15 08:35:00,26.1,22.5,30.44,NE,34,3.0,10.0,86,0.00,,,0.00,Wunderground v.1.15,2013-01-15 13:35:00,
2013-01-15 08:36:00,26.1,22.5,30.44,NNE,24,7.0,10.0,86,0.00,,,0.00,Wunderground v.1.15,2013-01-15 13:36:00,
2013-01-15 08:39:00,26.1,22.2,30.44,NNE,28,4.0,10.0,85,0.00,,,0.00,Wunderground v.1.15,2013-01-15 13:39:00,
2013-01-15 08:41:00,26.2,22.3,30.44,ENE,58,7.0,9.0,85,0.00,,,0.00,Wunderground v.1.15,2013-01-15 13:41:00,
2013-01-15 08:42:00,26.2,22.3,30.44,NNE,32,6.0,11.0,85,0.00,,,0.00,Wunderground v.1.15,2013-01-15 13:42:00,
2013-01-15 08:44:00,26.2,22.3,30.44,NNE,24,4.0,11.0,85,0.00,,,0.00,Wunderground v.1.15,2013-01-15 13:44:00,
2013-01-15 08:46:00,26.2,22.3,30.44,NNE,31,7.0,11.0,85,0.00,,,0.00,Wunderground v.1.15,2013-01-15 13:46:00,
2013-01-15 08:47:00,26.2,22.3,30.44,NNE,23,8.0,11.0,85,0.00,,,0.00,Wunderground v.1.15,2013-01-15 13:47:00,
2013-01-15 08:49:00,26.2,22.3,30.43,NE,45,10.0,11.0,85,0.00,,,0.00,Wunderground v.1.15,2013-01-15 13:49:00,
2013-01-15 08:50:00,26.2,22.3,30.43,NE,55,9.0,11.0,85,0.00,,,0.00,Wunderground v.1.15,2013-01-15 13:50:00,
2013-01-15 08:52:00,26.2,22.3,30.44,NE,40,6.0,7.0,85,0.00,,,0.00,Wunderground v.1.15,2013-01-15 13:52:00,
2013-01-15 08:55:00,26.2,22.3,30.44,ENE,66,3.0,7.0,85,0.00,,,0.00,Wunderground v.1.15,2013-01-15 13:55:00,
2013-01-15 08:57:00,26.3,22.4,30.43,NNE,19,4.0,7.0,85,0.00,,,0.00,Wunderground v.1.15,2013-01-15 13:57:00,
2013-01-15 08:58:00,26.3,22.4,30.43,NNW,335,5.0,7.0,85,0.00,,,0.00,Wunderground v.1.15,2013-01-15 13:58:00,
2013-01-15 09:00:00,26.4,22.5,30.43,NE,40,4.0,7.0,85,0.00,,,0.00,Wunderground v.1.15,2013-01-15 14:00:00,
2013-01-15 09:02:00,26.4,22.5,30.43,NE,46,10.0,10.0,85,0.00,,,0.00,Wunderground v.1.15,2013-01-15 14:02:00,
2013-01-15 09:03:00,26.4,22.5,30.43,NE,44,3.0,10.0,85,0.00,,,0.00,Wunderground v.1.15,2013-01-15 14:03:00,
2013-01-15 09:05:00,26.5,22.6,30.43,ENE,60,4.0,10.0,85,0.00,,,0.00,Wunderground v.1.15,2013-01-15 14:05:00,
2013-01-15 09:07:00,26.5,22.6,30.43,NE,49,4.0,10.0,85,0.00,,,0.00,Wunderground v.1.15,2013-01-15 14:07:00,
2013-01-15 09:08:00,26.5,22.6,30.43,NE,44,4.0,10.0,85,0.00,,,0.00,Wunderground v.1.15,2013-01-15 14:08:00,
2013-01-15 09:10:00,26.6,22.7,30.43,NE,40,5.0,10.0,85,0.00,,,0.00,Wunderground v.1.15,2013-01-15 14:10:00,
2013-01-15 09:11:00,26.6,22.7,30.42,NE,53,5.0,7.0,85,0.00,,,0.00,Wunderground v.1.15,2013-01-15 14:11:00,
2013-01-15 09:13:00,26.6,22.7,30.43,ENE,59,3.0,7.0,85,0.00,,,0.00,Wunderground v.1.15,2013-01-15 14:13:00,
2013-01-15 09:16:00,26.7,22.8,30.43,NE,44,6.0,11.0,85,0.00,,,0.00,Wunderground v.1.15,2013-01-15 14:16:00,
2013-01-15 09:17:00,26.7,22.8,30.42,North,5,3.0,11.0,85,0.00,,,0.00,Wunderground v.1.15,2013-01-15 14:17:00,
2013-01-15 09:18:00,26.8,22.9,30.42,NE,46,7.0,11.0,85,0.00,,,0.00,Wunderground v.1.15,2013-01-15 14:18:00,
2013-01-15 09:21:00,26.8,22.6,30.43,NE,43,6.0,6.0,84,0.00,,,0.00,Wunderground v.1.15,2013-01-15 14:21:00,
2013-01-15 09:22:00,26.9,22.7,30.43,ENE,61,4.0,7.0,84,0.00,,,0.00,Wunderground v.1.15,2013-01-15 14:22:00,
2013-01-15 09:24:00,26.9,22.7,30.43,East,94,2.0,7.0,84,0.00,,,0.00,Wunderground v.1.15,2013-01-15 14:24:00,
2013-01-15 09:26:00,27.0,22.8,30.43,NNE,20,3.0,7.0,84,0.00,,,0.00,Wunderground v.1.15,2013-01-15 14:26:00,
2013-01-15 09:28:00,27.0,22.8,30.43,East,88,1.0,9.0,84,0.00,,,0.00,Wunderground v.1.15,2013-01-15 14:28:00,
2013-01-15 09:29:00,27.1,22.9,30.42,NE,38,8.0,10.0,84,0.00,,,0.00,Wunderground v.1.15,2013-01-15 14:29:00,
2013-01-15 09:31:00,27.1,22.9,30.42,ENE,67,8.0,11.0,84,0.00,,,0.00,Wunderground v.1.15,2013-01-15 14:31:00,
2013-01-15 09:34:00,27.1,22.9,30.42,NE,42,6.0,13.0,84,0.00,,,0.00,Wunderground v.1.15,2013-01-15 14:34:00,
2013-01-15 09:37:00,27.2,23.0,30.42,NNE,28,7.0,15.0,84,0.00,,,0.00,Wunderground v.1.15,2013-01-15 14:37:00,
2013-01-15 09:39:00,27.2,22.7,30.42,NE,55,4.0,15.0,83,0.00,,,0.00,Wunderground v.1.15,2013-01-15 14:39:00,
2013-01-15 09:40:00,27.2,22.7,30.42,ENE,63,3.0,15.0,83,0.00,,,0.00,Wunderground v.1.15,2013-01-15 14:40:00,
2013-01-15 09:42:00,27.3,22.8,30.42,NE,44,2.0,7.0,83,0.00,,,0.00,Wunderground v.1.15,2013-01-15 14:42:00,
2013-01-15 09:45:00,27.4,22.9,30.42,NE,46,2.0,8.0,83,0.00,,,0.00,Wunderground v.1.15,2013-01-15 14:45:00,
2013-01-15 09:47:00,27.4,22.9,30.41,NE,35,4.0,8.0,83,0.00,,,0.00,Wunderground v.1.15,2013-01-15 14:47:00,
2013-01-15 09:50:00,27.4,22.9,30.41,ESE,103,5.0,10.0,83,0.00,,,0.00,Wunderground v.1.15,2013-01-15 14:50:00,
2013-01-15 09:53:00,27.5,23.0,30.41,NE,41,6.0,14.0,83,0.00,,,0.00,Wunderground v.1.15,2013-01-15 14:53:00,
2013-01-15 09:55:00,27.4,22.9,30.41,ENE,76,5.0,14.0,83,0.00,,,0.00,Wunderground v.1.15,2013-01-15 14:55:00,
2013-01-15 09:56:00,27.4,22.6,30.41,NNW,330,11.0,14.0,82,0.00,,,0.00,Wunderground v.1.15,2013-01-15 14:56:00,
2013-01-15 09:58:00,27.4,22.6,30.41,NE,56,9.0,14.0,82,0.00,,,0.00,Wunderground v.1.15,2013-01-15 14:58:00,
2013-01-15 10:00:00,27.3,22.5,30.41,ENE,74,5.0,14.0,82,0.00,,,0.00,Wunderground v.1.15,2013-01-15 15:00:00,
2013-01-15 10:01:00,27.3,22.5,30.41,ENE,71,8.0,10.0,82,0.00,,,0.00,Wunderground v.1.15,2013-01-15 15:01:00,
2013-01-15 10:04:00,27.4,22.9,30.41,NE,51,6.0,10.0,83,0.00,,,0.00,Wunderground v.1.15,2013-01-15 15:04:00,
2013-01-15 10:05:00,27.4,22.9,30.41,NNE,30,7.0,10.0,83,0.00,,,0.00,Wunderground v.1.15,2013-01-15 15:05:00,
2013-01-15 10:06:00,27.4,22.9,30.41,NE,52,8.0,10.0,83,0.00,,,0.00,Wunderground v.1.15,2013-01-15 15:06:00,
2013-01-15 10:09:00,27.4,22.9,30.41,ENE,60,8.0,10.0,83,0.00,,,0.00,Wunderground v.1.15,2013-01-15 15:09:00,
2013-01-15 10:11:00,27.4,22.6,30.41,ENE,67,8.0,8.0,82,0.00,,,0.00,Wunderground v.1.15,2013-01-15 15:11:00,
2013-01-15 10:14:00,27.5,23.0,30.41,North,360,6.0,9.0,83,0.00,,,0.00,Wunderground v.1.15,2013-01-15 15:14:00,
2013-01-15 10:16:00,27.7,23.2,30.41,NNE,28,6.0,11.0,83,0.00,,,0.00,Wunderground v.1.15,2013-01-15 15:16:00,
2013-01-15 10:17:00,27.7,23.2,30.41,NE,42,10.0,11.0,83,0.00,,,0.00,Wunderground v.1.15,2013-01-15 15:17:00,
2013-01-15 10:19:00,27.7,23.2,30.41,North,5,1.0,11.0,83,0.00,,,0.00,Wunderground v.1.15,2013-01-15 15:19:00,
2013-01-15 10:21:00,27.9,23.4,30.41,NE,55,6.0,9.0,83,0.00,,,0.00,Wunderground v.1.15,2013-01-15 15:21:00,
2013-01-15 10:22:00,27.9,23.4,30.41,NE,36,7.0,9.0,83,0.00,,,0.00,Wunderground v.1.15,2013-01-15 15:22:00,
2013-01-15 10:24:00,28.0,23.5,30.41,NNE,33,4.0,9.0,83,0.00,,,0.00,Wunderground v.1.15,2013-01-15 15:24:00,
2013-01-15 10:26:00,28.1,23.6,30.41,NNW,333,8.0,10.0,83,0.00,,,0.00,Wunderground v.1.15,2013-01-15 15:26:00,
2013-01-15 10:27:00,28.2,23.7,30.41,ENE,71,5.0,10.0,83,0.00,,,0.00,Wunderground v.1.15,2013-01-15 15:27:00,
2013-01-15 10:29:00,28.3,23.5,30.42,ENE,61,8.0,10.0,82,0.00,,,0.00,Wunderground v.1.15,2013-01-15 15:29:00,
2013-01-15 10:32:00,28.3,23.2,30.42,East,91,3.0,11.0,81,0.00,,,0.00,Wunderground v.1.15,2013-01-15 15:32:00,
2013-01-15 10:33:00,28.3,23.2,30.42,East,80,8.0,11.0,81,0.00,,,0.00,Wunderground v.1.15,2013-01-15 15:33:00,
2013-01-15 10:34:00,28.2,23.1,30.42,ENE,69,4.0,11.0,81,0.00,,,0.00,Wunderground v.1.15,2013-01-15 15:34:00,
2013-01-15 10:37:00,28.1,23.0,30.42,East,97,5.0,11.0,81,0.00,,,0.00,Wunderground v.1.15,2013-01-15 15:37:00,
2013-01-15 10:38:00,28.1,23.0,30.42,East,80,7.0,11.0,81,0.00,,,0.00,Wunderground v.1.15,2013-01-15 15:38:00,
2013-01-15 10:39:00,28.1,23.0,30.42,ESE,121,2.0,11.0,81,0.00,,,0.00,Wunderground v.1.15,2013-01-15 15:39:00,
2013-01-15 10:42:00,28.1,23.0,30.43,East,93,8.0,8.0,81,0.00,,,0.00,Wunderground v.1.15,2013-01-15 15:42:00,
2013-01-15 10:43:00,28.1,23.3,30.43,ENE,73,4.0,10.0,82,0.00,,,0.00,Wunderground v.1.15,2013-01-15 15:43:00,
2013-01-15 10:45:00,28.1,23.0,30.43,ENE,65,2.0,10.0,81,0.00,,,0.00,Wunderground v.1.15,2013-01-15 15:45:00,
2013-01-15 10:47:00,28.2,23.4,30.44,NE,36,5.0,10.0,82,0.00,,,0.00,Wunderground v.1.15,2013-01-15 15:47:00,
2013-01-15 10:48:00,28.2,23.4,30.43,ENE,70,5.0,10.0,82,0.00,,,0.00,Wunderground v.1.15,2013-01-15 15:48:00,
2013-01-15 10:50:00,28.2,23.1,30.43,NNE,33,6.0,10.0,81,0.00,,,0.00,Wunderground v.1.15,2013-01-15 15:50:00,
2013-01-15 10:52:00,28.2,23.1,30.43,NE,49,4.0,5.0,81,0.00,,,0.00,Wunderground v.1.15,2013-01-15 15:52:00,
2013-01-15 10:53:00,28.2,23.1,30.43,East,82,5.0,7.0,81,0.00,,,0.00,Wunderground v.1.15,2013-01-15 15:53:00,
2013-01-15 10:55:00,28.3,23.2,30.43,ENE,78,3.0,8.0,81,0.00,,,0.00,Wunderground v.1.15,2013-01-15 15:55:00,
2013-01-15 10:57:00,28.3,23.5,30.43,NE,46,4.0,8.0,82,0.00,,,0.00,Wunderground v.1.15,2013-01-15 15:57:00,
2013-01-15 10:58:00,28.3,23.2,30.43,East,85,5.0,8.0,81,0.00,,,0.00,Wunderground v.1.15,2013-01-15 15:58:00,
2013-01-15 11:00:00,28.4,23.3,30.43,ESE,103,2.0,8.0,81,0.00,,,0.00,Wunderground v.1.15,2013-01-15 16:00:00,
2013-01-15 11:02:00,28.4,23.3,30.43,ENE,62,4.0,10.0,81,0.00,,,0.00,Wunderground v.1.15,2013-01-15 16:02:00,
2013-01-15 11:03:00,28.4,23.3,30.43,NE,52,2.0,10.0,81,0.00,,,0.00,Wunderground v.1.15,2013-01-15 16:03:00,
2013-01-15 11:05:00,28.4,23.3,30.42,ESE,106,7.0,10.0,81,0.00,,,0.00,Wunderground v.1.15,2013-01-15 16:05:00,
2013-01-15 11:07:00,28.4,23.3,30.42,ENE,75,1.0,10.0,81,0.00,,,0.00,Wunderground v.1.15,2013-01-15 16:07:00,
2013-01-15 11:08:00,28.4,23.3,30.42,North,9,3.0,10.0,81,0.00,,,0.00,Wunderground v.1.15,2013-01-15 16:08:00,
2013-01-15 11:10:00,28.4,23.3,30.42,ENE,65,7.0,10.0,81,0.00,,,0.00,Wunderground v.1.15,2013-01-15 16:10:00,
2013-01-15 11:11:00,28.4,23.3,30.41,East,84,6.0,7.0,81,0.00,,,0.00,Wunderground v.1.15,2013-01-15 16:11:00,
2013-01-15 11:12:00,28.4,23.3,30.41,East,87,3.0,8.0,81,0.00,,,0.00,Wunderground v.1.15,2013-01-15 16:12:00,
2013-01-15 11:13:00,28.5,23.4,30.41,East,91,1.0,8.0,81,0.00,,,0.00,Wunderground v.1.15,2013-01-15 16:13:00,
2013-01-15 11:15:00,28.5,23.7,30.41,NNE,26,3.0,8.0,82,0.00,,,0.00,Wunderground v.1.15,2013-01-15 16:15:00,
2013-01-15 11:16:00,28.5,23.7,30.42,NNE,33,3.0,8.0,82,0.00,,,0.00,Wunderground v.1.15,2013-01-15 16:16:00,
2013-01-15 11:17:00,28.6,23.8,30.42,NE,53,7.0,8.0,82,0.00,,,0.00,Wunderground v.1.15,2013-01-15 16:17:00,
2013-01-15 11:19:00,28.6,23.8,30.42,NE,36,0.0,10.0,82,0.00,,,0.00,Wunderground v.1.15,2013-01-15 16:19:00,
2013-01-15 11:20:00,28.7,23.9,30.41,East,88,1.0,10.0,82,0.00,,,0.00,Wunderground v.1.15,2013-01-15 16:20:00,
2013-01-15 11:21:00,28.8,24.0,30.41,East,82,5.0,8.0,82,0.00,,,0.00,Wunderground v.1.15,2013-01-15 16:21:00,
2013-01-15 11:22:00,28.9,24.1,30.41,NE,40,6.0,10.0,82,0.00,,,0.00,Wunderground v.1.15,2013-01-15 16:22:00,
2013-01-15 11:24:00,28.8,24.0,30.42,East,99,8.0,10.0,82,0.00,,,0.00,Wunderground v.1.15,2013-01-15 16:24:00,
2013-01-15 11:26:00,28.9,23.8,30.41,NE,40,5.0,10.0,81,0.00,,,0.00,Wunderground v.1.15,2013-01-15 16:26:00,
2013-01-15 11:28:00,28.9,23.8,30.41,NE,43,11.0,11.0,81,0.00,,,0.00,Wunderground v.1.15,2013-01-15 16:28:00,
2013-01-15 11:30:00,28.8,23.7,30.41,East,82,6.0,11.0,81,0.00,,,0.00,Wunderground v.1.15,2013-01-15 16:30:00,
2013-01-15 11:31:00,28.8,23.7,30.41,East,94,0.0,6.0,81,0.00,,,0.00,Wunderground v.1.15,2013-01-15 16:31:00,
2013-01-15 11:32:00,28.8,23.7,30.41,ENE,70,4.0,6.0,81,0.00,,,0.00,Wunderground v.1.15,2013-01-15 16:32:00,
2013-01-15 11:33:00,28.8,23.7,30.41,NE,53,3.0,9.0,81,0.00,,,0.00,Wunderground v.1.15,2013-01-15 16:33:00,
2013-01-15 11:35:00,28.8,23.7,30.40,East,88,8.0,10.0,81,0.00,,,0.00,Wunderground v.1.15,2013-01-15 16:35:00,
2013-01-15 11:36:00,28.7,23.6,30.40,ENE,65,7.0,10.0,81,0.00,,,0.00,Wunderground v.1.15,2013-01-15 16:36:00,
2013-01-15 11:37:00,28.7,23.6,30.40,ENE,67,4.0,10.0,81,0.00,,,0.00,Wunderground v.1.15,2013-01-15 16:37:00,
2013-01-15 11:38:00,28.7,23.6,30.40,ENE,67,2.0,10.0,81,0.00,,,0.00,Wunderground v.1.15,2013-01-15 16:38:00,
2013-01-15 11:41:00,28.7,23.9,30.40,NE,53,0.0,5.0,82,0.00,,,0.00,Wunderground v.1.15,2013-01-15 16:41:00,
2013-01-15 11:42:00,28.8,24.0,30.40,NE,46,2.0,5.0,82,0.00,,,0.00,Wunderground v.1.15,2013-01-15 16:42:00,
2013-01-15 11:43:00,28.8,24.0,30.40,NNE,32,4.0,5.0,82,0.00,,,0.00,Wunderground v.1.15,2013-01-15 16:43:00,
2013-01-15 11:46:00,29.0,24.2,30.40,NNE,19,7.0,8.0,82,0.00,,,0.00,Wunderground v.1.15,2013-01-15 16:46:00,
2013-01-15 11:47:00,29.0,24.2,30.40,NE,34,8.0,8.0,82,0.00,,,0.00,Wunderground v.1.15,2013-01-15 16:47:00,
2013-01-15 11:48:00,29.0,24.2,30.39,ENE,62,4.0,8.0,82,0.00,,,0.00,Wunderground v.1.15,2013-01-15 16:48:00,
2013-01-15 11:51:00,29.0,23.9,30.39,NNE,12,9.0,9.0,81,0.00,,,0.00,Wunderground v.1.15,2013-01-15 16:51:00,
2013-01-15 11:52:00,29.0,23.9,30.39,NE,53,5.0,10.0,81,0.00,,,0.00,Wunderground v.1.15,2013-01-15 16:52:00,
2013-01-15 11:53:00,29.0,23.9,30.38,NNE,33,4.0,10.0,81,0.00,,,0.00,Wunderground v.1.15,2013-01-15 16:53:00,
2013-01-15 11:56:00,29.0,24.2,30.39,East,82,3.0,10.0,82,0.00,,,0.00,Wunderground v.1.15,2013-01-15 16:56:00,
2013-01-15 11:57:00,29.0,24.2,30.38,NE,49,6.0,10.0,82,0.00,,,0.00,Wunderground v.1.15,2013-01-15 16:57:00,
2013-01-15 11:58:00,29.0,24.2,30.38,ENE,74,5.0,10.0,82,0.00,,,0.00,Wunderground v.1.15,2013-01-15 16:58:00,
2013-01-15 12:01:00,29.2,24.4,30.37,ENE,71,2.0,5.0,82,0.00,,,0.00,Wunderground v.1.15,2013-01-15 17:01:00,
2013-01-15 12:03:00,29.3,24.5,30.37,ENE,71,2.0,5.0,82,0.00,,,0.00,Wunderground v.1.15,2013-01-15 17:03:00,
2013-01-15 12:04:00,29.3,24.5,30.37,NE,36,3.0,5.0,82,0.00,,,0.00,Wunderground v.1.15,2013-01-15 17:04:00,
2013-01-15 12:06:00,29.4,24.6,30.37,NE,43,6.0,8.0,82,0.00,,,0.00,Wunderground v.1.15,2013-01-15 17:06:00,
2013-01-15 12:08:00,29.4,24.3,30.37,NNE,30,6.0,8.0,81,0.00,,,0.00,Wunderground v.1.15,2013-01-15 17:08:00,
2013-01-15 12:09:00,29.4,24.3,30.37,North,355,5.0,8.0,81,0.00,,,0.00,Wunderground v.1.15,2013-01-15 17:09:00,
2013-01-15 12:12:00,29.6,24.8,30.37,NE,34,8.0,8.0,82,0.00,,,0.00,Wunderground v.1.15,2013-01-15 17:12:00,
2013-01-15 12:13:00,29.6,24.8,30.37,NNE,14,10.0,13.0,82,0.00,,,0.00,Wunderground v.1.15,2013-01-15 17:13:00,
2013-01-15 12:14:00,29.6,24.5,30.37,NE,38,4.0,13.0,81,0.00,,,0.00,Wunderground v.1.15,2013-01-15 17:14:00,
2013-01-15 12:17:00,29.6,24.5,30.36,NW,309,1.0,13.0,81,0.00,,,0.00,Wunderground v.1.15,2013-01-15 17:17:00,
2013-01-15 12:18:00,29.6,24.5,30.36,ENE,76,11.0,13.0,81,0.00,,,0.00,Wunderground v.1.15,2013-01-15 17:18:00,
2013-01-15 12:19:00,29.6,24.5,30.36,NE,34,1.0,13.0,81,0.00,,,0.00,Wunderground v.1.15,2013-01-15 17:19:00,
2013-01-15 12:23:00,29.5,24.1,30.36,NE,38,6.0,9.0,80,0.00,,,0.00,Wunderground v.1.15,2013-01-15 17:23:00,
2013-01-15 12:24:00,29.5,24.1,30.36,NNE,19,1.0,9.0,80,0.00,,,0.00,Wunderground v.1.15,2013-01-15 17:24:00,
2013-01-15 12:29:00,29.5,24.4,30.36,NNE,29,8.0,13.0,81,0.00,,,0.00,Wunderground v.1.15,2013-01-15 17:29:00,
2013-01-15 12:34:00,29.6,24.5,30.35,ENE,63,4.0,9.0,81,0.00,,,0.00,Wunderground v.1.15,2013-01-15 17:34:00,
2013-01-15 12:35:00,29.7,24.6,30.35,NE,51,7.0,10.0,81,0.00,,,0.00,Wunderground v.1.15,2013-01-15 17:35:00,
2013-01-15 12:39:00,29.8,24.7,30.34,ENE,67,5.0,12.0,81,0.00,,,0.00,Wunderground v.1.15,2013-01-15 17:39:00,
2013-01-15 12:40:00,29.9,24.8,30.34,NE,56,8.0,12.0,81,0.00,,,0.00,Wunderground v.1.15,2013-01-15 17:40:00,
2013-01-15 12:44:00,29.9,24.5,30.34,East,79,9.0,11.0,80,0.00,,,0.00,Wunderground v.1.15,2013-01-15 17:44:00,
2013-01-15 12:45:00,29.9,24.5,30.34,ESE,110,8.0,11.0,80,0.00,,,0.00,Wunderground v.1.15,2013-01-15 17:45:00,
2013-01-15 12:49:00,30.1,24.7,30.33,East,83,5.0,11.0,80,0.00,,,0.00,Wunderground v.1.15,2013-01-15 17:49:00,
2013-01-15 12:50:00,30.1,24.7,30.34,ENE,58,4.0,11.0,80,0.00,,,0.00,Wunderground v.1.15,2013-01-15 17:50:00,
2013-01-15 12:54:00,30.5,25.1,30.33,NE,53,6.0,11.0,80,0.00,,,0.00,Wunderground v.1.15,2013-01-15 17:54:00,
2013-01-15 12:55:00,30.5,25.1,30.33,NE,53,5.0,11.0,80,0.00,,,0.00,Wunderground v.1.15,2013-01-15 17:55:00,
2013-01-15 12:59:00,30.8,25.4,30.33,NE,35,1.0,11.0,80,0.00,,,0.00,Wunderground v.1.15,2013-01-15 17:59:00,
2013-01-15 13:00:00,30.8,25.4,30.33,NE,35,0.0,11.0,80,0.00,,,0.00,Wunderground v.1.15,2013-01-15 18:00:00,
2013-01-15 13:01:00,31.0,25.9,30.33,SE,134,0.0,5.0,81,0.00,,,0.00,Wunderground v.1.15,2013-01-15 18:01:00,
2013-01-15 13:04:00,31.3,25.8,30.33,NNE,24,9.0,11.0,80,0.00,,,0.00,Wunderground v.1.15,2013-01-15 18:04:00,
2013-01-15 13:05:00,31.2,25.4,30.33,North,11,4.0,11.0,79,0.00,,,0.00,Wunderground v.1.15,2013-01-15 18:05:00,
2013-01-15 13:06:00,31.1,25.0,30.33,NNE,19,4.0,11.0,78,0.00,,,0.00,Wunderground v.1.15,2013-01-15 18:06:00,
2013-01-15 13:09:00,31.1,25.3,30.33,NE,44,9.0,11.0,79,0.00,,,0.00,Wunderground v.1.15,2013-01-15 18:09:00,
2013-01-15 13:10:00,31.1,25.3,30.32,NE,55,11.0,11.0,79,0.00,,,0.00,Wunderground v.1.15,2013-01-15 18:10:00,
2013-01-15 13:11:00,31.1,25.3,30.32,ENE,74,8.0,8.0,79,0.00,,,0.00,Wunderground v.1.15,2013-01-15 18:11:00,
2013-01-15 13:15:00,31.0,25.2,30.33,East,82,8.0,11.0,79,0.00,,,0.00,Wunderground v.1.15,2013-01-15 18:15:00,
2013-01-15 13:16:00,30.9,24.8,30.33,NNE,32,7.0,12.0,78,0.00,,,0.00,Wunderground v.1.15,2013-01-15 18:16:00,
2013-01-15 13:20:00,30.8,25.1,30.33,North,355,4.0,12.0,79,0.00,,,0.00,Wunderground v.1.15,2013-01-15 18:20:00,
2013-01-15 13:21:00,30.8,25.1,30.33,NE,34,6.0,9.0,79,0.00,,,0.00,Wunderground v.1.15,2013-01-15 18:21:00,
2013-01-15 13:25:00,30.9,25.2,30.33,ENE,61,8.0,9.0,79,0.00,,,0.00,Wunderground v.1.15,2013-01-15 18:25:00,
2013-01-15 13:26:00,31.0,25.2,30.32,NE,39,5.0,9.0,79,0.00,,,0.00,Wunderground v.1.15,2013-01-15 18:26:00,
2013-01-15 13:31:00,31.2,25.4,30.32,NNE,28,2.0,5.0,79,0.00,,,0.00,Wunderground v.1.15,2013-01-15 18:31:00,
2013-01-15 13:32:00,31.1,25.0,30.33,NE,49,4.0,7.0,78,0.00,,,0.00,Wunderground v.1.15,2013-01-15 18:32:00,
2013-01-15 13:36:00,31.3,25.8,30.32,ENE,59,1.0,7.0,80,0.00,,,0.00,Wunderground v.1.15,2013-01-15 18:36:00,
2013-01-15 13:37:00,31.4,25.9,30.32,ENE,76,7.0,7.0,80,0.00,,,0.00,Wunderground v.1.15,2013-01-15 18:37:00,
2013-01-15 13:41:00,31.5,25.4,30.32,NE,41,3.0,4.0,78,0.00,,,0.00,Wunderground v.1.15,2013-01-15 18:41:00,
2013-01-15 13:42:00,31.6,25.5,30.31,NE,48,0.0,4.0,78,0.00,,,0.00,Wunderground v.1.15,2013-01-15 18:42:00,
2013-01-15 13:46:00,31.8,25.7,30.31,NNE,32,6.0,11.0,78,0.00,,,0.00,Wunderground v.1.15,2013-01-15 18:46:00,
2013-01-15 13:47:00,31.7,25.3,30.31,NNE,12,4.0,11.0,77,0.00,,,0.00,Wunderground v.1.15,2013-01-15 18:47:00,
2013-01-15 13:48:00,31.8,25.4,30.30,NNE,20,2.0,11.0,77,0.00,,,0.00,Wunderground v.1.15,2013-01-15 18:48:00,
2013-01-15 13:52:00,32.1,26.0,30.30,NE,53,1.0,6.0,78,0.00,,,0.00,Wunderground v.1.15,2013-01-15 18:52:00,
2013-01-15 13:53:00,32.2,26.1,30.31,North,360,8.0,8.0,78,0.00,,,0.00,Wunderground v.1.15,2013-01-15 18:53:00,
2013-01-15 13:57:00,32.0,25.3,30.30,ENE,62,2.0,10.0,76,0.00,,,0.00,Wunderground v.1.15,2013-01-15 18:57:00,
2013-01-15 13:58:00,32.1,25.4,30.30,North,5,3.0,10.0,76,0.00,,,0.00,Wunderground v.1.15,2013-01-15 18:58:00,
2013-01-15 14:02:00,32.2,25.8,30.30,NE,39,3.0,8.0,77,0.00,,,0.00,Wunderground v.1.15,2013-01-15 19:02:00,
2013-01-15 14:03:00,32.2,25.8,30.30,NE,44,7.0,9.0,77,0.00,,,0.00,Wunderground v.1.15,2013-01-15 19:03:00,
2013-01-15 14:04:00,32.2,25.8,30.29,ENE,75,7.0,9.0,77,0.00,,,0.00,Wunderground v.1.15,2013-01-15 19:04:00,
2013-01-15 14:07:00,32.2,25.8,30.29,East,81,8.0,9.0,77,0.00,,,0.00,Wunderground v.1.15,2013-01-15 19:07:00,
2013-01-15 14:08:00,32.2,25.8,30.28,NNE,28,6.0,9.0,77,0.00,,,0.00,Wunderground v.1.15,2013-01-15 19:08:00,
2013-01-15 14:09:00,32.2,25.5,30.28,ENE,59,11.0,11.0,76,0.00,,,0.00,Wunderground v.1.15,2013-01-15 19:09:00,
2013-01-15 14:12:00,32.1,25.4,30.29,NE,34,4.0,10.0,76,0.00,,,0.00,Wunderground v.1.15,2013-01-15 19:12:00,
2013-01-15 14:13:00,32.1,25.4,30.29,NNE,26,9.0,10.0,76,0.00,,,0.00,Wunderground v.1.15,2013-01-15 19:13:00,
2013-01-15 14:15:00,32.2,25.5,30.29,NE,51,8.0,10.0,76,0.00,,,0.00,Wunderground v.1.15,2013-01-15 19:15:00,
2013-01-15 14:17:00,32.2,25.5,30.29,ENE,67,9.0,12.0,76,0.00,,,0.00,Wunderground v.1.15,2013-01-15 19:17:00,
2013-01-15 14:18:00,32.2,25.5,30.29,NNE,28,9.0,12.0,76,0.00,,,0.00,Wunderground v.1.15,2013-01-15 19:18:00,
2013-01-15 14:20:00,32.1,25.1,30.28,NE,41,6.0,12.0,75,0.00,,,0.00,Wunderground v.1.15,2013-01-15 19:20:00,
2013-01-15 14:23:00,32.2,25.2,30.28,NNE,13,4.0,12.0,75,0.00,,,0.00,Wunderground v.1.15,2013-01-15 19:23:00,
2013-01-15 14:24:00,32.2,25.2,30.28,NE,42,0.0,12.0,75,0.00,,,0.00,Wunderground v.1.15,2013-01-15 19:24:00,
2013-01-15 14:25:00,32.3,25.3,30.29,NE,56,5.0,12.0,75,0.00,,,0.00,Wunderground v.1.15,2013-01-15 19:25:00,
2013-01-15 14:28:00,32.4,25.4,30.28,ENE,74,4.0,12.0,75,0.00,,,0.00,Wunderground v.1.15,2013-01-15 19:28:00,
2013-01-15 14:29:00,32.5,25.5,30.28,East,93,7.0,12.0,75,0.00,,,0.00,Wunderground v.1.15,2013-01-15 19:29:00,
2013-01-15 14:31:00,32.5,25.5,30.28,NE,51,5.0,5.0,75,0.00,,,0.00,Wunderground v.1.15,2013-01-15 19:31:00,
2013-01-15 14:34:00,32.5,25.5,30.28,NE,44,8.0,11.0,75,0.00,,,0.00,Wunderground v.1.15,2013-01-15 19:34:00,
2013-01-15 14:36:00,32.3,25.3,30.28,NE,53,3.0,11.0,75,0.00,,,0.00,Wunderground v.1.15,2013-01-15 19:36:00,
2013-01-15 14:39:00,32.3,25.3,30.28,ENE,57,7.0,12.0,75,0.00,,,0.00,Wunderground v.1.15,2013-01-15 19:39:00,
2013-01-15 14:41:00,32.3,25.3,30.28,ENE,59,9.0,12.0,75,0.00,,,0.00,Wunderground v.1.15,2013-01-15 19:41:00,
2013-01-15 14:44:00,32.2,25.2,30.28,ENE,59,5.0,12.0,75,0.00,,,0.00,Wunderground v.1.15,2013-01-15 19:44:00,
2013-01-15 14:45:00,32.2,25.2,30.28,NE,56,6.0,12.0,75,0.00,,,0.00,Wunderground v.1.15,2013-01-15 19:45:00,
2013-01-15 14:47:00,32.2,25.2,30.28,North,5,13.0,14.0,75,0.00,,,0.00,Wunderground v.1.15,2013-01-15 19:47:00,
2013-01-15 14:49:00,32.2,25.2,30.29,ENE,69,9.0,14.0,75,0.00,,,0.00,Wunderground v.1.15,2013-01-15 19:49:00,
2013-01-15 14:50:00,32.2,25.2,30.29,NE,37,7.0,14.0,75,0.00,,,0.00,Wunderground v.1.15,2013-01-15 19:50:00,
2013-01-15 14:53:00,32.2,25.2,30.29,ENE,63,7.0,10.0,75,0.00,,,0.00,Wunderground v.1.15,2013-01-15 19:53:00,
2013-01-15 14:54:00,32.2,25.2,30.29,ENE,67,9.0,10.0,75,0.00,,,0.00,Wunderground v.1.15,2013-01-15 19:54:00,
2013-01-15 14:55:00,32.2,25.2,30.29,East,82,6.0,10.0,75,0.00,,,0.00,Wunderground v.1.15,2013-01-15 19:55:00,
2013-01-15 14:59:00,32.3,25.3,30.30,ENE,74,3.0,10.0,75,0.00,,,0.00,Wunderground v.1.15,2013-01-15 19:59:00,
2013-01-15 15:00:00,32.3,25.6,30.30,NE,54,3.0,10.0,76,0.00,,,0.00,Wunderground v.1.15,2013-01-15 20:00:00,
2013-01-15 15:04:00,32.4,25.7,30.29,ENE,61,4.0,8.0,76,0.00,,,0.00,Wunderground v.1.15,2013-01-15 20:04:00,
2013-01-15 15:05:00,32.5,25.8,30.29,NE,36,6.0,8.0,76,0.00,,,0.00,Wunderground v.1.15,2013-01-15 20:05:00,
2013-01-15 15:06:00,32.5,25.8,30.29,ENE,62,7.0,10.0,76,0.00,,,0.00,Wunderground v.1.15,2013-01-15 20:06:00,
2013-01-15 15:09:00,32.4,25.4,30.29,ENE,61,8.0,11.0,75,0.00,,,0.00,Wunderground v.1.15,2013-01-15 20:09:00,
2013-01-15 15:10:00,32.3,25.3,30.29,NNE,24,1.0,11.0,75,0.00,,,0.00,Wunderground v.1.15,2013-01-15 20:10:00,
2013-01-15 15:11:00,32.3,25.3,30.29,ENE,62,4.0,9.0,75,0.00,,,0.00,Wunderground v.1.15,2013-01-15 20:11:00,
2013-01-15 15:14:00,32.3,25.3,30.29,North,11,2.0,10.0,75,0.00,,,0.00,Wunderground v.1.15,2013-01-15 20:14:00,
2013-01-15 15:15:00,32.3,25.3,30.29,NE,40,2.0,10.0,75,0.00,,,0.00,Wunderground v.1.15,2013-01-15 20:15:00,
2013-01-15 15:16:00,32.3,25.6,30.29,NE,40,3.0,10.0,76,0.00,,,0.00,Wunderground v.1.15,2013-01-15 20:16:00,
2013-01-15 15:20:00,32.3,25.3,30.28,NE,37,1.0,10.0,75,0.00,,,0.00,Wunderground v.1.15,2013-01-15 20:20:00,
2013-01-15 15:21:00,32.3,25.6,30.28,NE,54,3.0,7.0,76,0.00,,,0.00,Wunderground v.1.15,2013-01-15 20:21:00,
2013-01-15 15:25:00,32.4,25.7,30.28,North,360,10.0,10.0,76,0.00,,,0.00,Wunderground v.1.15,2013-01-15 20:25:00,
2013-01-15 15:26:00,32.4,25.7,30.28,North,10,13.0,13.0,76,0.00,,,0.00,Wunderground v.1.15,2013-01-15 20:26:00,
2013-01-15 15:30:00,32.5,25.8,30.28,NE,45,4.0,13.0,76,0.00,,,0.00,Wunderground v.1.15,2013-01-15 20:30:00,
2013-01-15 15:31:00,32.4,25.7,30.28,NE,36,11.0,11.0,76,0.00,,,0.00,Wunderground v.1.15,2013-01-15 20:31:00,
2013-01-15 15:36:00,32.3,25.3,30.28,NNE,26,6.0,12.0,75,0.00,,,0.00,Wunderground v.1.15,2013-01-15 20:36:00,
2013-01-15 15:41:00,32.4,25.7,30.28,East,79,5.0,7.0,76,0.00,,,0.00,Wunderground v.1.15,2013-01-15 20:41:00,
2013-01-15 15:42:00,32.4,25.7,30.28,ENE,73,5.0,10.0,76,0.00,,,0.00,Wunderground v.1.15,2013-01-15 20:42:00,
2013-01-15 15:46:00,32.3,25.6,30.28,NE,44,3.0,12.0,76,0.00,,,0.00,Wunderground v.1.15,2013-01-15 20:46:00,
2013-01-15 15:47:00,32.3,25.6,30.29,ENE,77,3.0,12.0,76,0.00,,,0.00,Wunderground v.1.15,2013-01-15 20:47:00,
2013-01-15 15:51:00,32.4,26.0,30.30,NE,42,3.0,5.0,77,0.00,,,0.00,Wunderground v.1.15,2013-01-15 20:51:00,
2013-01-15 15:52:00,32.4,26.0,30.30,North,360,4.0,5.0,77,0.00,,,0.00,Wunderground v.1.15,2013-01-15 20:52:00,
2013-01-15 15:56:00,32.4,25.7,30.31,NNE,14,4.0,6.0,76,0.00,,,0.00,Wunderground v.1.15,2013-01-15 20:56:00,
2013-01-15 15:57:00,32.5,25.8,30.32,North,9,0.0,6.0,76,0.00,,,0.00,Wunderground v.1.15,2013-01-15 20:57:00,
2013-01-15 16:02:00,32.5,25.8,30.32,NNW,348,5.0,5.0,76,0.00,,,0.00,Wunderground v.1.15,2013-01-15 21:02:00,
2013-01-15 16:03:00,32.5,25.5,30.32,North,360,4.0,8.0,75,0.00,,,0.00,Wunderground v.1.15,2013-01-15 21:03:00,
2013-01-15 16:07:00,32.5,25.5,30.32,North,355,5.0,8.0,75,0.00,,,0.00,Wunderground v.1.15,2013-01-15 21:07:00,
2013-01-15 16:08:00,32.6,25.6,30.32,NE,44,4.0,8.0,75,0.00,,,0.00,Wunderground v.1.15,2013-01-15 21:08:00,
2013-01-15 16:10:00,32.5,25.5,30.32,NNE,15,4.0,4.0,75,0.00,,,0.00,Wunderground v.1.15,2013-01-15 21:10:00,
2013-01-15 16:12:00,32.5,25.5,30.31,NE,50,5.0,8.0,75,0.00,,,0.00,Wunderground v.1.15,2013-01-15 21:12:00,
2013-01-15 16:13:00,32.5,25.5,30.31,NNE,14,5.0,8.0,75,0.00,,,0.00,Wunderground v.1.15,2013-01-15 21:13:00,
2013-01-15 16:16:00,32.4,25.7,30.30,NNE,28,1.0,8.0,76,0.00,,,0.00,Wunderground v.1.15,2013-01-15 21:16:00,
2013-01-15 16:17:00,32.5,25.8,30.31,NE,36,3.0,8.0,76,0.00,,,0.00,Wunderground v.1.15,2013-01-15 21:17:00,
2013-01-15 16:19:00,32.5,25.8,30.31,North,360,4.0,8.0,76,0.00,,,0.00,Wunderground v.1.15,2013-01-15 21:19:00,
2013-01-15 16:21:00,32.5,25.8,30.31,NE,35,4.0,4.0,76,0.00,,,0.00,Wunderground v.1.15,2013-01-15 21:21:00,
2013-01-15 16:22:00,32.5,25.8,30.30,North,360,4.0,4.0,76,0.00,,,0.00,Wunderground v.1.15,2013-01-15 21:22:00,
2013-01-15 16:24:00,32.5,25.8,30.30,NNE,23,4.0,8.0,76,0.00,,,0.00,Wunderground v.1.15,2013-01-15 21:24:00,
2013-01-15 16:26:00,32.5,25.8,30.31,North,360,4.0,8.0,76,0.00,,,0.00,Wunderground v.1.15,2013-01-15 21:26:00,
2013-01-15 16:27:00,32.5,26.1,30.31,NNE,20,2.0,8.0,77,0.00,,,0.00,Wunderground v.1.15,2013-01-15 21:27:00,
2013-01-15 16:29:00,32.6,26.2,30.31,NNE,17,2.0,8.0,77,0.00,,,0.00,Wunderground v.1.15,2013-01-15 21:29:00,
2013-01-15 16:31:00,32.6,26.2,30.31,NNE,16,2.0,3.0,77,0.00,,,0.00,Wunderground v.1.15,2013-01-15 21:31:00,
2013-01-15 16:32:00,32.6,26.2,30.31,NNW,342,3.0,4.0,77,0.00,,,0.00,Wunderground v.1.15,2013-01-15 21:32:00,
2013-01-15 16:33:00,32.6,26.2,30.30,North,351,2.0,4.0,77,0.00,,,0.00,Wunderground v.1.15,2013-01-15 21:33:00,
2013-01-15 16:35:00,32.6,26.2,30.30,NNE,24,5.0,5.0,77,0.00,,,0.00,Wunderground v.1.15,2013-01-15 21:35:00,
2013-01-15 16:36:00,32.6,26.2,30.31,NNE,13,4.0,5.0,77,0.00,,,0.00,Wunderground v.1.15,2013-01-15 21:36:00,
2013-01-15 16:37:00,32.6,26.2,30.31,NNE,22,10.0,10.0,77,0.00,,,0.00,Wunderground v.1.15,2013-01-15 21:37:00,
2013-01-15 16:38:00,32.6,26.2,30.31,North,11,1.0,10.0,77,0.00,,,0.00,Wunderground v.1.15,2013-01-15 21:38:00,
2013-01-15 16:40:00,32.6,26.2,30.32,NNE,15,2.0,10.0,77,0.00,,,0.00,Wunderground v.1.15,2013-01-15 21:40:00,
2013-01-15 16:41:00,32.6,26.2,30.32,NNW,343,6.0,7.0,77,0.00,,,0.00,Wunderground v.1.15,2013-01-15 21:41:00,
2013-01-15 16:42:00,32.6,26.2,30.32,NNE,17,3.0,8.0,77,0.00,,,0.00,Wunderground v.1.15,2013-01-15 21:42:00,
2013-01-15 16:44:00,32.6,25.9,30.32,NNW,348,4.0,10.0,76,0.00,,,0.00,Wunderground v.1.15,2013-01-15 21:44:00,
2013-01-15 16:45:00,32.6,25.9,30.32,NNW,338,5.0,10.0,76,0.00,,,0.00,Wunderground v.1.15,2013-01-15 21:45:00,
2013-01-15 16:46:00,32.6,25.9,30.31,NNE,28,4.0,10.0,76,0.00,,,0.00,Wunderground v.1.15,2013-01-15 21:46:00,
2013-01-15 16:48:00,32.6,25.9,30.31,North,360,1.0,10.0,76,0.00,,,0.00,Wunderground v.1.15,2013-01-15 21:48:00,
2013-01-15 16:49:00,32.6,25.9,30.30,NNE,16,8.0,11.0,76,0.00,,,0.00,Wunderground v.1.15,2013-01-15 21:49:00,
2013-01-15 16:50:00,32.6,25.9,30.30,North,10,2.0,11.0,76,0.00,,,0.00,Wunderground v.1.15,2013-01-15 21:50:00,
2013-01-15 16:52:00,32.6,25.9,30.31,NNE,17,6.0,6.0,76,0.00,,,0.00,Wunderground v.1.15,2013-01-15 21:52:00,
2013-01-15 16:53:00,32.6,25.9,30.30,NNE,19,7.0,8.0,76,0.00,,,0.00,Wunderground v.1.15,2013-01-15 21:53:00,
2013-01-15 16:55:00,32.5,26.1,30.30,NNW,346,6.0,10.0,77,0.00,,,0.00,Wunderground v.1.15,2013-01-15 21:55:00,
2013-01-15 16:57:00,32.5,26.1,30.29,NNE,17,4.0,10.0,77,0.00,,,0.00,Wunderground v.1.15,2013-01-15 21:57:00,
2013-01-15 16:58:00,32.4,26.0,30.30,NNE,15,6.0,10.0,77,0.00,,,0.00,Wunderground v.1.15,2013-01-15 21:58:00,
2013-01-15 17:00:00,32.4,26.3,30.29,North,5,4.0,10.0,78,0.00,,,0.00,Wunderground v.1.15,2013-01-15 22:00:00,
2013-01-15 17:02:00,32.3,26.2,30.29,North,355,7.0,12.0,78,0.00,,,0.00,Wunderground v.1.15,2013-01-15 22:02:00,
2013-01-15 17:04:00,32.3,26.2,30.28,North,355,5.0,12.0,78,0.00,,,0.00,Wunderground v.1.15,2013-01-15 22:04:00,
2013-01-15 17:05:00,32.2,26.1,30.28,NNE,17,3.0,12.0,78,0.00,,,0.00,Wunderground v.1.15,2013-01-15 22:05:00,
2013-01-15 17:06:00,32.2,26.1,30.28,NE,45,6.0,12.0,78,0.00,,,0.00,Wunderground v.1.15,2013-01-15 22:06:00,
2013-01-15 17:07:00,32.2,26.1,30.27,North,9,6.0,12.0,78,0.00,,,0.00,Wunderground v.1.15,2013-01-15 22:07:00,
2013-01-15 17:09:00,32.2,26.1,30.27,NE,38,6.0,12.0,78,0.00,,,0.00,Wunderground v.1.15,2013-01-15 22:09:00,
2013-01-15 17:10:00,32.1,26.0,30.27,NE,40,0.0,12.0,78,0.00,,,0.00,Wunderground v.1.15,2013-01-15 22:10:00,
2013-01-15 17:11:00,32.1,26.3,30.27,NNE,32,2.0,6.0,79,0.00,,,0.00,Wunderground v.1.15,2013-01-15 22:11:00,
2013-01-15 17:13:00,32.1,26.3,30.26,NNE,32,5.0,7.0,79,0.00,,,0.00,Wunderground v.1.15,2013-01-15 22:13:00,
2013-01-15 17:14:00,32.1,26.3,30.26,NNE,23,3.0,7.0,79,0.00,,,0.00,Wunderground v.1.15,2013-01-15 22:14:00,
2013-01-15 17:15:00,32.1,26.3,30.26,ENE,59,7.0,7.0,79,0.00,,,0.00,Wunderground v.1.15,2013-01-15 22:15:00,
2013-01-15 17:16:00,32.1,26.3,30.26,NE,38,3.0,7.0,79,0.00,,,0.00,Wunderground v.1.15,2013-01-15 22:16:00,
2013-01-15 17:18:00,32.1,26.3,30.26,NNE,24,3.0,7.0,79,0.00,,,0.00,Wunderground v.1.15,2013-01-15 22:18:00,
2013-01-15 17:19:00,32.1,26.3,30.26,NNE,16,3.0,7.0,79,0.00,,,0.00,Wunderground v.1.15,2013-01-15 22:19:00,
2013-01-15 17:20:00,32.0,26.2,30.26,NNW,340,0.0,8.0,79,0.00,,,0.00,Wunderground v.1.15,2013-01-15 22:20:00,
2013-01-15 17:22:00,32.0,26.2,30.26,NE,45,3.0,7.0,79,0.00,,,0.00,Wunderground v.1.15,2013-01-15 22:22:00,
2013-01-15 17:24:00,32.0,26.2,30.26,NNE,17,3.0,7.0,79,0.00,,,0.00,Wunderground v.1.15,2013-01-15 22:24:00,
2013-01-15 17:25:00,32.0,26.2,30.26,North,355,2.0,7.0,79,0.00,,,0.00,Wunderground v.1.15,2013-01-15 22:25:00,
2013-01-15 17:28:00,32.0,26.2,30.27,North,5,6.0,7.0,79,0.00,,,0.00,Wunderground v.1.15,2013-01-15 22:28:00,
2013-01-15 17:29:00,32.0,26.2,30.26,NNW,341,3.0,7.0,79,0.00,,,0.00,Wunderground v.1.15,2013-01-15 22:29:00,
2013-01-15 17:30:00,31.9,26.1,30.26,North,9,3.0,7.0,79,0.00,,,0.00,Wunderground v.1.15,2013-01-15 22:30:00,
2013-01-15 17:31:00,31.9,26.1,30.26,NNE,14,2.0,3.0,79,0.00,,,0.00,Wunderground v.1.15,2013-01-15 22:31:00,
2013-01-15 17:33:00,31.9,25.8,30.26,NE,49,5.0,10.0,78,0.00,,,0.00,Wunderground v.1.15,2013-01-15 22:33:00,
2013-01-15 17:34:00,31.9,25.8,30.26,NE,46,3.0,10.0,78,0.00,,,0.00,Wunderground v.1.15,2013-01-15 22:34:00,
2013-01-15 17:35:00,31.9,26.1,30.26,NNE,30,2.0,10.0,79,0.00,,,0.00,Wunderground v.1.15,2013-01-15 22:35:00,
2013-01-15 17:36:00,31.9,26.1,30.26,NNE,28,4.0,10.0,79,0.00,,,0.00,Wunderground v.1.15,2013-01-15 22:36:00,
2013-01-15 17:38:00,31.9,26.1,30.26,NNE,32,6.0,10.0,79,0.00,,,0.00,Wunderground v.1.15,2013-01-15 22:38:00,
2013-01-15 17:39:00,31.9,25.8,30.26,NNE,14,4.0,10.0,78,0.00,,,0.00,Wunderground v.1.15,2013-01-15 22:39:00,
2013-01-15 17:40:00,31.9,25.8,30.25,NE,39,1.0,4.0,78,0.00,,,0.00,Wunderground v.1.15,2013-01-15 22:40:00,
2013-01-15 17:41:00,31.9,26.1,30.25,NNE,19,3.0,4.0,79,0.00,,,0.00,Wunderground v.1.15,2013-01-15 22:41:00,
2013-01-15 17:43:00,31.9,26.1,30.25,NNE,24,4.0,6.0,79,0.00,,,0.00,Wunderground v.1.15,2013-01-15 22:43:00,
2013-01-15 17:45:00,31.8,26.0,30.26,NE,34,3.0,8.0,79,0.00,,,0.00,Wunderground v.1.15,2013-01-15 22:45:00,
2013-01-15 17:46:00,31.8,26.0,30.26,NE,40,2.0,8.0,79,0.00,,,0.00,Wunderground v.1.15,2013-01-15 22:46:00,
2013-01-15 17:49:00,31.8,26.0,30.27,NNE,28,3.0,8.0,79,0.00,,,0.00,Wunderground v.1.15,2013-01-15 22:49:00,
2013-01-15 17:50:00,31.8,26.0,30.27,NNE,16,7.0,9.0,79,0.00,,,0.00,Wunderground v.1.15,2013-01-15 22:50:00,
2013-01-15 17:51:00,31.8,26.0,30.27,NNE,23,3.0,5.0,79,0.00,,,0.00,Wunderground v.1.15,2013-01-15 22:51:00,
2013-01-15 17:52:00,31.8,26.0,30.27,NNE,24,0.0,5.0,79,0.00,,,0.00,Wunderground v.1.15,2013-01-15 22:52:00,
2013-01-15 17:54:00,31.8,26.0,30.27,NNE,24,1.0,5.0,79,0.00,,,0.00,Wunderground v.1.15,2013-01-15 22:54:00,
2013-01-15 17:55:00,31.9,26.1,30.27,NNE,25,3.0,5.0,79,0.00,,,0.00,Wunderground v.1.15,2013-01-15 22:55:00,
2013-01-15 17:56:00,31.9,26.1,30.27,NNE,25,0.0,5.0,79,0.00,,,0.00,Wunderground v.1.15,2013-01-15 22:56:00,
2013-01-15 17:57:00,31.8,26.0,30.27,NNE,25,0.0,5.0,79,0.00,,,0.00,Wunderground v.1.15,2013-01-15 22:57:00,
2013-01-15 17:59:00,31.9,26.1,30.27,NNE,26,2.0,5.0,79,0.00,,,0.00,Wunderground v.1.15,2013-01-15 22:59:00,
2013-01-15 18:00:00,31.9,26.1,30.27,North,360,3.0,6.0,79,0.00,,,0.00,Wunderground v.1.15,2013-01-15 23:00:00,
2013-01-15 18:01:00,31.8,26.0,30.26,NE,48,4.0,5.0,79,0.00,,,0.00,Wunderground v.1.15,2013-01-15 23:01:00,
2013-01-15 18:02:00,31.9,26.1,30.26,NE,45,5.0,7.0,79,0.00,,,0.00,Wunderground v.1.15,2013-01-15 23:02:00,
2013-01-15 18:05:00,31.9,26.1,30.25,NNE,30,9.0,11.0,79,0.00,,,0.00,Wunderground v.1.15,2013-01-15 23:05:00,
2013-01-15 18:06:00,31.9,26.1,30.26,NE,49,6.0,11.0,79,0.00,,,0.00,Wunderground v.1.15,2013-01-15 23:06:00,
2013-01-15 18:07:00,31.9,25.8,30.26,NE,54,5.0,11.0,78,0.00,,,0.00,Wunderground v.1.15,2013-01-15 23:07:00,
2013-01-15 18:08:00,31.9,25.8,30.26,NE,42,4.0,11.0,78,0.00,,,0.00,Wunderground v.1.15,2013-01-15 23:08:00,
2013-01-15 18:11:00,31.9,25.8,30.26,NE,42,4.0,5.0,78,0.00,,,0.00,Wunderground v.1.15,2013-01-15 23:11:00,
2013-01-15 18:12:00,31.9,25.8,30.26,NNE,30,6.0,10.0,78,0.00,,,0.00,Wunderground v.1.15,2013-01-15 23:12:00,
2013-01-15 18:13:00,31.9,25.8,30.26,ENE,59,1.0,10.0,78,0.00,,,0.00,Wunderground v.1.15,2013-01-15 23:13:00,
2013-01-15 18:16:00,31.9,25.8,30.26,NE,47,5.0,10.0,78,0.00,,,0.00,Wunderground v.1.15,2013-01-15 23:16:00,
2013-01-15 18:17:00,31.9,25.8,30.25,NNE,21,7.0,10.0,78,0.00,,,0.00,Wunderground v.1.15,2013-01-15 23:17:00,
2013-01-15 18:18:00,31.9,25.8,30.25,NNE,28,3.0,11.0,78,0.00,,,0.00,Wunderground v.1.15,2013-01-15 23:18:00,
2013-01-15 18:21:00,31.9,26.1,30.25,NE,38,4.0,5.0,79,0.00,,,0.00,Wunderground v.1.15,2013-01-15 23:21:00,
2013-01-15 18:23:00,31.9,26.1,30.25,NNE,25,3.0,7.0,79,0.00,,,0.00,Wunderground v.1.15,2013-01-15 23:23:00,
2013-01-15 18:24:00,31.9,26.1,30.25,NNE,30,3.0,7.0,79,0.00,,,0.00,Wunderground v.1.15,2013-01-15 23:24:00,
2013-01-15 18:26:00,31.9,26.1,30.25,NNE,19,2.0,10.0,79,0.00,,,0.00,Wunderground v.1.15,2013-01-15 23:26:00,
2013-01-15 18:28:00,31.9,26.1,30.25,North,11,6.0,10.0,79,0.00,,,0.00,Wunderground v.1.15,2013-01-15 23:28:00,
2013-01-15 18:30:00,31.9,26.1,30.25,North,5,3.0,10.0,79,0.00,,,0.00,Wunderground v.1.15,2013-01-15 23:30:00,
2013-01-15 18:31:00,31.9,26.1,30.25,NNE,13,1.0,4.0,79,0.00,,,0.00,Wunderground v.1.15,2013-01-15 23:31:00,
2013-01-15 18:32:00,31.9,26.1,30.25,NNE,15,1.0,4.0,79,0.00,,,0.00,Wunderground v.1.15,2013-01-15 23:32:00,
2013-01-15 18:33:00,31.9,26.1,30.25,North,5,6.0,7.0,79,0.00,,,0.00,Wunderground v.1.15,2013-01-15 23:33:00,
2013-01-15 18:35:00,31.9,26.1,30.25,NNE,29,2.0,7.0,79,0.00,,,0.00,Wunderground v.1.15,2013-01-15 23:35:00,
2013-01-15 18:37:00,31.9,26.1,30.26,NE,53,5.0,7.0,79,0.00,,,0.00,Wunderground v.1.15,2013-01-15 23:37:00,
2013-01-15 18:39:00,31.9,26.1,30.27,NNE,16,5.0,7.0,79,0.00,,,0.00,Wunderground v.1.15,2013-01-15 23:39:00,
2013-01-15 18:40:00,31.9,26.1,30.27,North,11,5.0,7.0,79,0.00,,,0.00,Wunderground v.1.15,2013-01-15 23:40:00,
2013-01-15 18:42:00,31.9,26.1,30.27,NE,48,7.0,7.0,79,0.00,,,0.00,Wunderground v.1.15,2013-01-15 23:42:00,
2013-01-15 18:43:00,31.9,26.1,30.27,NNE,19,7.0,10.0,79,0.00,,,0.00,Wunderground v.1.15,2013-01-15 23:43:00,
2013-01-15 18:45:00,32.0,26.2,30.27,NE,44,2.0,10.0,79,0.00,,,0.00,Wunderground v.1.15,2013-01-15 23:45:00,
2013-01-15 18:48:00,32.0,26.2,30.26,NNE,26,3.0,10.0,79,0.00,,,0.00,Wunderground v.1.15,2013-01-15 23:48:00,
2013-01-15 18:50:00,32.0,26.2,30.27,North,360,0.0,10.0,79,0.00,,,0.00,Wunderground v.1.15,2013-01-15 23:50:00,
2013-01-15 18:53:00,32.0,26.2,30.27,NNE,21,3.0,6.0,79,0.00,,,0.00,Wunderground v.1.15,2013-01-15 23:53:00,
2013-01-15 18:55:00,32.0,26.2,30.27,NNE,30,0.0,6.0,79,0.00,,,0.00,Wunderground v.1.15,2013-01-15 23:55:00,
2013-01-15 18:58:00,32.0,26.2,30.26,NE,37,6.0,8.0,79,0.00,,,0.00,Wunderground v.1.15,2013-01-15 23:58:00,
2013-01-15 19:00:00,32.0,26.2,30.26,NE,38,1.0,8.0,79,0.00,,,0.00,Wunderground v.1.15,2013-01-16 00:00:00,
2013-01-15 19:03:00,32.0,26.2,30.26,NNE,32,4.0,4.0,79,0.00,,,0.00,Wunderground v.1.15,2013-01-16 00:03:00,
2013-01-15 19:04:00,32.0,26.2,30.26,NNE,17,4.0,5.0,79,0.00,,,0.00,Wunderground v.1.15,2013-01-16 00:04:00,
2013-01-15 19:05:00,32.0,26.2,30.26,NNE,31,5.0,5.0,79,0.00,,,0.00,Wunderground v.1.15,2013-01-16 00:05:00,
2013-01-15 19:08:00,32.0,26.2,30.26,NE,53,4.0,7.0,79,0.00,,,0.00,Wunderground v.1.15,2013-01-16 00:08:00,
2013-01-15 19:09:00,32.0,26.2,30.25,NE,44,3.0,7.0,79,0.00,,,0.00,Wunderground v.1.15,2013-01-16 00:09:00,
2013-01-15 19:10:00,32.0,26.2,30.25,NNE,27,3.0,3.0,79,0.00,,,0.00,Wunderground v.1.15,2013-01-16 00:10:00,
2013-01-15 19:11:00,32.0,26.2,30.25,NNE,26,3.0,3.0,79,0.00,,,0.00,Wunderground v.1.15,2013-01-16 00:11:00,
2013-01-15 19:13:00,32.0,26.2,30.25,NE,46,4.0,5.0,79,0.00,,,0.00,Wunderground v.1.15,2013-01-16 00:13:00,
2013-01-15 19:15:00,32.0,26.2,30.25,NNE,32,6.0,7.0,79,0.00,,,0.00,Wunderground v.1.15,2013-01-16 00:15:00,
2013-01-15 19:16:00,32.0,26.2,30.25,NE,39,3.0,7.0,79,0.00,,,0.00,Wunderground v.1.15,2013-01-16 00:16:00,
2013-01-15 19:19:00,32.0,26.2,30.24,NNE,27,3.0,7.0,79,0.00,,,0.00,Wunderground v.1.15,2013-01-16 00:19:00,
2013-01-15 19:20:00,32.0,26.2,30.24,NE,36,4.0,7.0,79,0.00,,,0.00,Wunderground v.1.15,2013-01-16 00:20:00,
2013-01-15 19:21:00,32.0,26.2,30.24,North,360,5.0,6.0,79,0.00,,,0.00,Wunderground v.1.15,2013-01-16 00:21:00,
2013-01-15 19:24:00,32.0,25.9,30.24,NE,34,4.0,11.0,78,0.00,,,0.00,Wunderground v.1.15,2013-01-16 00:24:00,
2013-01-15 19:25:00,32.0,25.9,30.24,North,360,5.0,11.0,78,0.00,,,0.00,Wunderground v.1.15,2013-01-16 00:25:00,
2013-01-15 19:26:00,32.0,25.9,30.24,North,5,6.0,11.0,78,0.00,,,0.00,Wunderground v.1.15,2013-01-16 00:26:00,
2013-01-15 19:29:00,32.0,25.9,30.24,NNE,17,4.0,11.0,78,0.00,,,0.00,Wunderground v.1.15,2013-01-16 00:29:00,
2013-01-15 19:30:00,32.1,26.0,30.24,NNE,24,5.0,11.0,78,0.00,,,0.00,Wunderground v.1.15,2013-01-16 00:30:00,
2013-01-15 19:31:00,32.1,26.0,30.24,NE,38,4.0,5.0,78,0.00,,,0.00,Wunderground v.1.15,2013-01-16 00:31:00,
2013-01-15 19:34:00,32.1,26.0,30.24,NE,34,6.0,10.0,78,0.00,,,0.00,Wunderground v.1.15,2013-01-16 00:34:00,
2013-01-15 19:35:00,32.1,26.0,30.24,NE,49,3.0,10.0,78,0.00,,,0.00,Wunderground v.1.15,2013-01-16 00:35:00,
2013-01-15 19:36:00,32.1,26.0,30.24,NE,51,2.0,10.0,78,0.00,,,0.00,Wunderground v.1.15,2013-01-16 00:36:00,
2013-01-15 19:37:00,32.1,26.0,30.24,NE,41,6.0,10.0,78,0.00,,,0.00,Wunderground v.1.15,2013-01-16 00:37:00,
2013-01-15 19:39:00,32.1,26.0,30.23,NE,46,2.0,10.0,78,0.00,,,0.00,Wunderground v.1.15,2013-01-16 00:39:00,
2013-01-15 19:40:00,32.1,26.0,30.22,NE,36,6.0,10.0,78,0.00,,,0.00,Wunderground v.1.15,2013-01-16 00:40:00,
2013-01-15 19:42:00,32.1,26.0,30.22,ENE,67,11.0,11.0,78,0.00,,,0.00,Wunderground v.1.15,2013-01-16 00:42:00,
2013-01-15 19:44:00,32.1,26.0,30.22,East,82,5.0,11.0,78,0.00,,,0.00,Wunderground v.1.15,2013-01-16 00:44:00,
2013-01-15 19:45:00,32.1,26.0,30.22,ENE,78,2.0,11.0,78,0.00,,,0.00,Wunderground v.1.15,2013-01-16 00:45:00,
2013-01-15 19:47:00,32.1,26.0,30.23,NE,55,1.0,11.0,78,0.00,,,0.00,Wunderground v.1.15,2013-01-16 00:47:00,
2013-01-15 19:49:00,32.1,26.0,30.23,ENE,66,8.0,11.0,78,0.00,,,0.00,Wunderground v.1.15,2013-01-16 00:49:00,
2013-01-15 19:50:00,32.1,26.0,30.23,NE,44,4.0,11.0,78,0.00,,,0.00,Wunderground v.1.15,2013-01-16 00:50:00,
2013-01-15 19:52:00,32.1,26.0,30.23,ENE,62,1.0,6.0,78,0.00,,,0.00,Wunderground v.1.15,2013-01-16 00:52:00,
2013-01-15 19:55:00,32.1,26.0,30.23,NNE,26,2.0,6.0,78,0.00,,,0.00,Wunderground v.1.15,2013-01-16 00:55:00,
2013-01-15 19:58:00,32.1,26.0,30.22,NE,54,4.0,7.0,78,0.00,,,0.00,Wunderground v.1.15,2013-01-16 00:58:00,
2013-01-15 20:00:00,32.1,26.0,30.22,ENE,67,9.0,9.0,78,0.00,,,0.00,Wunderground v.1.15,2013-01-16 01:00:00,
2013-01-15 20:03:00,32.1,26.0,30.21,North,5,2.0,7.0,78,0.00,,,0.00,Wunderground v.1.15,2013-01-16 01:03:00,
2013-01-15 20:05:00,32.1,26.0,30.21,North,5,5.0,7.0,78,0.00,,,0.00,Wunderground v.1.15,2013-01-16 01:05:00,
2013-01-15 20:06:00,32.1,26.0,30.21,NNE,20,4.0,7.0,78,0.00,,,0.00,Wunderground v.1.15,2013-01-16 01:06:00,
2013-01-15 20:08:00,32.1,26.0,30.21,ENE,78,3.0,7.0,78,0.00,,,0.00,Wunderground v.1.15,2013-01-16 01:08:00,
2013-01-15 20:10:00,32.1,26.0,30.21,East,79,0.0,7.0,78,0.00,,,0.00,Wunderground v.1.15,2013-01-16 01:10:00,
2013-01-15 20:11:00,32.0,25.9,30.21,East,79,1.0,4.0,78,0.00,,,0.00,Wunderground v.1.15,2013-01-16 01:11:00,
2013-01-15 20:13:00,32.0,26.2,30.21,East,79,0.0,4.0,79,0.00,,,0.00,Wunderground v.1.15,2013-01-16 01:13:00,
2013-01-15 20:15:00,32.1,26.3,30.21,East,85,3.0,6.0,79,0.00,,,0.00,Wunderground v.1.15,2013-01-16 01:15:00,
2013-01-15 20:16:00,32.1,26.3,30.21,NE,53,5.0,6.0,79,0.00,,,0.00,Wunderground v.1.15,2013-01-16 01:16:00,
2013-01-15 20:18:00,32.1,26.0,30.21,East,79,5.0,8.0,78,0.00,,,0.00,Wunderground v.1.15,2013-01-16 01:18:00,
2013-01-15 20:21:00,32.1,26.0,30.21,ENE,63,1.0,5.0,78,0.00,,,0.00,Wunderground v.1.15,2013-01-16 01:21:00,
2013-01-15 20:23:00,32.1,26.0,30.21,NE,36,10.0,11.0,78,0.00,,,0.00,Wunderground v.1.15,2013-01-16 01:23:00,
2013-01-15 20:24:00,32.1,26.0,30.21,NNE,32,4.0,11.0,78,0.00,,,0.00,Wunderground v.1.15,2013-01-16 01:24:00,
2013-01-15 20:26:00,32.1,26.0,30.21,NNE,28,4.0,11.0,78,0.00,,,0.00,Wunderground v.1.15,2013-01-16 01:26:00,
2013-01-15 20:29:00,32.1,26.0,30.21,NE,36,1.0,11.0,78,0.00,,,0.00,Wunderground v.1.15,2013-01-16 01:29:00,
2013-01-15 20:31:00,32.1,26.3,30.21,East,86,6.0,6.0,79,0.00,,,0.00,Wunderground v.1.15,2013-01-16 01:31:00,
2013-01-15 20:34:00,32.0,26.2,30.21,NNE,26,5.0,6.0,79,0.00,,,0.00,Wunderground v.1.15,2013-01-16 01:34:00,
2013-01-15 20:36:00,32.0,26.2,30.21,NE,39,3.0,6.0,79,0.00,,,0.00,Wunderground v.1.15,2013-01-16 01:36:00,
2013-01-15 20:39:00,32.0,26.2,30.20,NNE,19,4.0,6.0,79,0.00,,,0.00,Wunderground v.1.15,2013-01-16 01:39:00,
2013-01-15 20:41:00,32.0,26.2,30.20,NE,53,3.0,5.0,79,0.00,,,0.00,Wunderground v.1.15,2013-01-16 01:41:00,
2013-01-15 20:42:00,32.0,26.2,30.20,NE,54,3.0,5.0,79,0.00,,,0.00,Wunderground v.1.15,2013-01-16 01:42:00,
2013-01-15 20:44:00,32.0,26.2,30.20,ENE,73,0.0,6.0,79,0.00,,,0.00,Wunderground v.1.15,2013-01-16 01:44:00,
2013-01-15 20:45:00,32.0,26.2,30.20,ENE,73,0.0,6.0,79,0.00,,,0.00,Wunderground v.1.15,2013-01-16 01:45:00,
2013-01-15 20:47:00,32.0,26.2,30.20,ENE,57,3.0,7.0,79,0.00,,,0.00,Wunderground v.1.15,2013-01-16 01:47:00,
2013-01-15 20:49:00,32.0,26.2,30.20,NE,40,3.0,8.0,79,0.00,,,0.00,Wunderground v.1.15,2013-01-16 01:49:00,
2013-01-15 20:50:00,32.0,25.9,30.20,NE,51,5.0,8.0,78,0.00,,,0.00,Wunderground v.1.15,2013-01-16 01:50:00,
2013-01-15 20:52:00,32.0,25.9,30.20,ENE,59,1.0,4.0,78,0.00,,,0.00,Wunderground v.1.15,2013-01-16 01:52:00,
2013-01-15 20:53:00,32.0,25.9,30.20,ENE,59,0.0,4.0,78,0.00,,,0.00,Wunderground v.1.15,2013-01-16 01:53:00,
2013-01-15 20:54:00,32.1,26.3,30.20,NE,48,0.0,4.0,79,0.00,,,0.00,Wunderground v.1.15,2013-01-16 01:54:00,
2013-01-15 20:55:00,32.1,26.3,30.20,NE,47,0.0,4.0,79,0.00,,,0.00,Wunderground v.1.15,2013-01-16 01:55:00,
2013-01-15 20:57:00,32.1,26.3,30.19,ENE,63,3.0,5.0,79,0.00,,,0.00,Wunderground v.1.15,2013-01-16 01:57:00,
2013-01-15 20:58:00,32.1,26.3,30.19,ENE,74,2.0,6.0,79,0.00,,,0.00,Wunderground v.1.15,2013-01-16 01:58:00,
2013-01-15 20:59:00,32.0,26.2,30.19,NNW,345,3.0,6.0,79,0.00,,,0.00,Wunderground v.1.15,2013-01-16 01:59:00,
2013-01-15 21:00:00,32.0,26.2,30.19,NNW,345,2.0,6.0,79,0.00,,,0.00,Wunderground v.1.15,2013-01-16 02:00:00,
2013-01-15 21:02:00,32.1,26.3,30.19,NE,49,4.0,4.0,79,0.00,,,0.00,Wunderground v.1.15,2013-01-16 02:02:00,
2013-01-15 21:04:00,32.1,26.3,30.18,NNE,23,4.0,7.0,79,0.00,,,0.00,Wunderground v.1.15,2013-01-16 02:04:00,
2013-01-15 21:05:00,32.1,26.0,30.18,NNE,23,4.0,7.0,78,0.00,,,0.00,Wunderground v.1.15,2013-01-16 02:05:00,
2013-01-15 21:07:00,32.1,26.0,30.18,NE,38,3.0,11.0,78,0.00,,,0.00,Wunderground v.1.15,2013-01-16 02:07:00,
2013-01-15 21:10:00,32.0,25.9,30.18,NE,34,7.0,11.0,78,0.00,,,0.00,Wunderground v.1.15,2013-01-16 02:10:00,
2013-01-15 21:12:00,32.0,25.9,30.19,NNE,24,3.0,5.0,78,0.00,,,0.00,Wunderground v.1.15,2013-01-16 02:12:00,
2013-01-15 21:15:00,32.1,26.0,30.19,ENE,64,5.0,5.0,78,0.00,,,0.00,Wunderground v.1.15,2013-01-16 02:15:00,
2013-01-15 21:16:00,32.1,26.0,30.19,NE,35,3.0,8.0,78,0.00,,,0.00,Wunderground v.1.15,2013-01-16 02:16:00,
2013-01-15 21:17:00,32.1,26.0,30.19,NE,46,4.0,8.0,78,0.00,,,0.00,Wunderground v.1.15,2013-01-16 02:17:00,
2013-01-15 21:20:00,32.1,26.0,30.18,NNE,28,4.0,8.0,78,0.00,,,0.00,Wunderground v.1.15,2013-01-16 02:20:00,
2013-01-15 21:21:00,32.1,26.0,30.18,NNE,17,4.0,5.0,78,0.00,,,0.00,Wunderground v.1.15,2013-01-16 02:21:00,
2013-01-15 21:23:00,32.1,26.0,30.18,NNE,30,1.0,5.0,78,0.00,,,0.00,Wunderground v.1.15,2013-01-16 02:23:00,
2013-01-15 21:25:00,32.1,26.0,30.18,NE,42,3.0,7.0,78,0.00,,,0.00,Wunderground v.1.15,2013-01-16 02:25:00,
2013-01-15 21:26:00,32.1,26.0,30.18,NNE,27,3.0,7.0,78,0.00,,,0.00,Wunderground v.1.15,2013-01-16 02:26:00,
2013-01-15 21:28:00,32.1,26.0,30.18,NE,50,3.0,7.0,78,0.00,,,0.00,Wunderground v.1.15,2013-01-16 02:28:00,
2013-01-15 21:30:00,32.1,26.0,30.18,ENE,58,4.0,7.0,78,0.00,,,0.00,Wunderground v.1.15,2013-01-16 02:30:00,
2013-01-15 21:31:00,32.1,26.0,30.17,NE,44,6.0,7.0,78,0.00,,,0.00,Wunderground v.1.15,2013-01-16 02:31:00,
2013-01-15 21:33:00,32.1,26.0,30.17,NNE,29,0.0,7.0,78,0.00,,,0.00,Wunderground v.1.15,2013-01-16 02:33:00,
2013-01-15 21:35:00,32.2,26.1,30.17,ENE,70,5.0,8.0,78,0.00,,,0.00,Wunderground v.1.15,2013-01-16 02:35:00,
2013-01-15 21:36:00,32.2,26.1,30.18,NE,53,4.0,8.0,78,0.00,,,0.00,Wunderground v.1.15,2013-01-16 02:36:00,
2013-01-15 21:38:00,32.2,26.1,30.18,ENE,65,5.0,8.0,78,0.00,,,0.00,Wunderground v.1.15,2013-01-16 02:38:00,
2013-01-15 21:40:00,32.2,26.1,30.18,ENE,68,1.0,8.0,78,0.00,,,0.00,Wunderground v.1.15,2013-01-16 02:40:00,
2013-01-15 21:41:00,32.2,26.1,30.18,ENE,71,0.0,4.0,78,0.00,,,0.00,Wunderground v.1.15,2013-01-16 02:41:00,
2013-01-15 21:42:00,32.2,26.1,30.18,ENE,70,0.0,4.0,78,0.00,,,0.00,Wunderground v.1.15,2013-01-16 02:42:00,
2013-01-15 21:43:00,32.2,26.1,30.18,ENE,71,2.0,4.0,78,0.00,,,0.00,Wunderground v.1.15,2013-01-16 02:43:00,
2013-01-15 21:45:00,32.2,26.1,30.18,ENE,74,4.0,4.0,78,0.00,,,0.00,Wunderground v.1.15,2013-01-16 02:45:00,
2013-01-15 21:46:00,32.2,26.1,30.17,NE,34,3.0,7.0,78,0.00,,,0.00,Wunderground v.1.15,2013-01-16 02:46:00,
2013-01-15 21:47:00,32.2,26.1,30.17,NE,52,3.0,7.0,78,0.00,,,0.00,Wunderground v.1.15,2013-01-16 02:47:00,
2013-01-15 21:48:00,32.2,26.1,30.18,NE,52,1.0,7.0,78,0.00,,,0.00,Wunderground v.1.15,2013-01-16 02:48:00,
2013-01-15 21:50:00,32.2,26.1,30.18,NE,51,1.0,7.0,78,0.00,,,0.00,Wunderground v.1.15,2013-01-16 02:50:00,
2013-01-15 21:52:00,32.2,26.1,30.17,ENE,57,5.0,5.0,78,0.00,,,0.00,Wunderground v.1.15,2013-01-16 02:52:00,
2013-01-15 21:53:00,32.2,26.1,30.17,ENE,65,4.0,7.0,78,0.00,,,0.00,Wunderground v.1.15,2013-01-16 02:53:00,
2013-01-15 21:55:00,32.2,26.1,30.17,NE,56,3.0,7.0,78,0.00,,,0.00,Wunderground v.1.15,2013-01-16 02:55:00,
2013-01-15 21:57:00,32.2,26.1,30.17,NE,55,4.0,8.0,78,0.00,,,0.00,Wunderground v.1.15,2013-01-16 02:57:00,
2013-01-15 21:59:00,32.2,26.1,30.17,NE,48,4.0,8.0,78,0.00,,,0.00,Wunderground v.1.15,2013-01-16 02:59:00,
2013-01-15 22:01:00,32.2,26.1,30.17,NNE,13,5.0,5.0,78,0.00,,,0.00,Wunderground v.1.15,2013-01-16 03:01:00,
2013-01-15 22:02:00,32.2,26.1,30.17,NNE,26,3.0,6.0,78,0.00,,,0.00,Wunderground v.1.15,2013-01-16 03:02:00,
2013-01-15 22:03:00,32.2,26.1,30.17,NNE,26,2.0,6.0,78,0.00,,,0.00,Wunderground v.1.15,2013-01-16 03:03:00,
2013-01-15 22:04:00,32.2,26.1,30.17,NNE,26,0.0,6.0,78,0.00,,,0.00,Wunderground v.1.15,2013-01-16 03:04:00,
2013-01-15 22:06:00,32.2,26.4,30.17,North,360,2.0,6.0,79,0.00,,,0.00,Wunderground v.1.15,2013-01-16 03:06:00,
2013-01-15 22:07:00,32.2,26.1,30.17,NE,35,4.0,7.0,78,0.00,,,0.00,Wunderground v.1.15,2013-01-16 03:07:00,
2013-01-15 22:08:00,32.2,26.1,30.17,NE,35,4.0,7.0,78,0.00,,,0.00,Wunderground v.1.15,2013-01-16 03:08:00,
2013-01-15 22:09:00,32.2,26.1,30.17,NE,42,2.0,7.0,78,0.00,,,0.00,Wunderground v.1.15,2013-01-16 03:09:00,
2013-01-15 22:11:00,32.3,26.2,30.17,NNE,17,3.0,3.0,78,0.00,,,0.00,Wunderground v.1.15,2013-01-16 03:11:00,
2013-01-15 22:13:00,32.2,26.1,30.17,NE,46,0.0,4.0,78,0.00,,,0.00,Wunderground v.1.15,2013-01-16 03:13:00,
2013-01-15 22:15:00,32.3,26.2,30.17,NE,46,0.0,4.0,78,0.00,,,0.00,Wunderground v.1.15,2013-01-16 03:15:00,
2013-01-15 22:16:00,32.3,26.5,30.17,North,5,4.0,4.0,79,0.00,,,0.00,Wunderground v.1.15,2013-01-16 03:16:00,
2013-01-15 22:18:00,32.3,26.5,30.17,NNW,348,1.0,5.0,79,0.00,,,0.00,Wunderground v.1.15,2013-01-16 03:18:00,
2013-01-15 22:20:00,32.3,26.2,30.17,NNW,347,1.0,5.0,78,0.00,,,0.00,Wunderground v.1.15,2013-01-16 03:20:00,
2013-01-15 22:21:00,32.3,26.5,30.17,NNW,348,2.0,3.0,79,0.00,,,0.00,Wunderground v.1.15,2013-01-16 03:21:00,
2013-01-15 22:23:00,32.3,26.5,30.17,North,349,3.0,3.0,79,0.00,,,0.00,Wunderground v.1.15,2013-01-16 03:23:00,
2013-01-15 22:25:00,32.3,26.5,30.17,North,5,3.0,4.0,79,0.00,,,0.00,Wunderground v.1.15,2013-01-16 03:25:00,
2013-01-15 22:26:00,32.3,26.5,30.16,North,5,2.0,4.0,79,0.00,,,0.00,Wunderground v.1.15,2013-01-16 03:26:00,
2013-01-15 22:28:00,32.3,26.5,30.16,NNE,33,5.0,5.0,79,0.00,,,0.00,Wunderground v.1.15,2013-01-16 03:28:00,
2013-01-15 22:29:00,32.3,26.5,30.16,NNE,32,3.0,5.0,79,0.00,,,0.00,Wunderground v.1.15,2013-01-16 03:29:00,
2013-01-15 22:30:00,32.3,26.5,30.16,NNE,33,2.0,2.0,79,0.00,,,0.00,Wunderground v.1.15,2013-01-16 03:30:00,
2013-01-15 22:32:00,32.3,26.5,30.16,NNE,21,3.0,5.0,79,0.00,,,0.00,Wunderground v.1.15,2013-01-16 03:32:00,
2013-01-15 22:33:00,32.3,26.5,30.16,NNE,26,4.0,6.0,79,0.00,,,0.00,Wunderground v.1.15,2013-01-16 03:33:00,
2013-01-15 22:34:00,32.3,26.5,30.16,NNE,26,3.0,6.0,79,0.00,,,0.00,Wunderground v.1.15,2013-01-16 03:34:00,
2013-01-15 22:36:00,32.3,26.5,30.15,ENE,78,2.0,6.0,79,0.00,,,0.00,Wunderground v.1.15,2013-01-16 03:36:00,
2013-01-15 22:38:00,32.3,26.2,30.15,NE,35,0.0,6.0,78,0.00,,,0.00,Wunderground v.1.15,2013-01-16 03:38:00,
2013-01-15 22:39:00,32.3,26.2,30.15,NE,36,1.0,6.0,78,0.00,,,0.00,Wunderground v.1.15,2013-01-16 03:39:00,
2013-01-15 22:41:00,32.3,26.2,30.14,ENE,61,0.0,3.0,78,0.00,,,0.00,Wunderground v.1.15,2013-01-16 03:41:00,
2013-01-15 22:43:00,32.3,26.5,30.14,NNE,27,5.0,5.0,79,0.00,,,0.00,Wunderground v.1.15,2013-01-16 03:43:00,
2013-01-15 22:44:00,32.3,26.5,30.15,North,11,1.0,5.0,79,0.00,,,0.00,Wunderground v.1.15,2013-01-16 03:44:00,
2013-01-15 22:46:00,32.3,26.5,30.15,NNE,13,3.0,5.0,79,0.00,,,0.00,Wunderground v.1.15,2013-01-16 03:46:00,
2013-01-15 22:48:00,32.3,26.5,30.15,North,5,1.0,6.0,79,0.00,,,0.00,Wunderground v.1.15,2013-01-16 03:48:00,
2013-01-15 22:50:00,32.3,26.5,30.15,NNE,33,3.0,6.0,79,0.00,,,0.00,Wunderground v.1.15,2013-01-16 03:50:00,
2013-01-15 22:51:00,32.4,26.6,30.15,NNE,33,3.0,3.0,79,0.00,,,0.00,Wunderground v.1.15,2013-01-16 03:51:00,
2013-01-15 22:55:00,32.4,26.3,30.17,NNW,338,3.0,4.0,78,0.00,,,0.00,Wunderground v.1.15,2013-01-16 03:55:00,
2013-01-15 22:56:00,32.4,26.3,30.17,NNW,345,3.0,4.0,78,0.00,,,0.00,Wunderground v.1.15,2013-01-16 03:56:00,
2013-01-15 23:00:00,32.5,26.7,30.17,NNW,345,0.0,4.0,79,0.00,,,0.00,Wunderground v.1.15,2013-01-16 04:00:00,
2013-01-15 23:01:00,32.5,26.7,30.17,NNW,327,3.0,4.0,79,0.00,,,0.00,Wunderground v.1.15,2013-01-16 04:01:00,
2013-01-15 23:05:00,32.5,26.7,30.18,North,355,3.0,4.0,79,0.00,,,0.00,Wunderground v.1.15,2013-01-16 04:05:00,
2013-01-15 23:06:00,32.5,26.4,30.18,North,355,0.0,4.0,78,0.00,,,0.00,Wunderground v.1.15,2013-01-16 04:06:00,
2013-01-15 23:10:00,32.5,26.7,30.17,North,355,1.0,4.0,79,0.00,,,0.00,Wunderground v.1.15,2013-01-16 04:10:00,
2013-01-15 23:11:00,32.5,26.7,30.16,NNE,24,5.0,5.0,79,0.00,,,0.00,Wunderground v.1.15,2013-01-16 04:11:00,
2013-01-15 23:12:00,32.5,26.7,30.16,NNE,24,3.0,5.0,79,0.00,,,0.00,Wunderground v.1.15,2013-01-16 04:12:00,
2013-01-15 23:15:00,32.5,26.4,30.17,NNE,25,2.0,5.0,78,0.00,,,0.00,Wunderground v.1.15,2013-01-16 04:15:00,
2013-01-15 23:16:00,32.5,26.7,30.17,NNE,25,2.0,5.0,79,0.00,,,0.00,Wunderground v.1.15,2013-01-16 04:16:00,
2013-01-15 23:17:00,32.5,26.7,30.17,NNE,25,1.0,5.0,79,0.00,,,0.00,Wunderground v.1.15,2013-01-16 04:17:00,
2013-01-15 23:20:00,32.4,26.6,30.16,NNE,23,4.0,4.0,79,0.00,,,0.00,Wunderground v.1.15,2013-01-16 04:20:00,
2013-01-15 23:22:00,32.5,26.7,30.16,NNE,30,0.0,5.0,79,0.00,,,0.00,Wunderground v.1.15,2013-01-16 04:22:00,
2013-01-15 23:26:00,32.5,26.7,30.16,NNE,30,3.0,5.0,79,0.00,,,0.00,Wunderground v.1.15,2013-01-16 04:26:00,
2013-01-15 23:27:00,32.5,26.7,30.16,NNE,30,3.0,5.0,79,0.00,,,0.00,Wunderground v.1.15,2013-01-16 04:27:00,
2013-01-15 23:28:00,32.4,26.6,30.16,NNE,30,2.0,5.0,79,0.00,,,0.00,Wunderground v.1.15,2013-01-16 04:28:00,
2013-01-15 23:31:00,32.5,26.7,30.17,NE,34,3.0,3.0,79,0.00,,,0.00,Wunderground v.1.15,2013-01-16 04:31:00,
2013-01-15 23:32:00,32.5,26.7,30.16,NE,36,4.0,4.0,79,0.00,,,0.00,Wunderground v.1.15,2013-01-16 04:32:00,
2013-01-15 23:33:00,32.5,26.4,30.16,NE,36,2.0,4.0,78,0.00,,,0.00,Wunderground v.1.15,2013-01-16 04:33:00,
2013-01-15 23:37:00,32.5,26.7,30.16,NNE,20,2.0,5.0,79,0.00,,,0.00,Wunderground v.1.15,2013-01-16 04:37:00,
2013-01-15 23:38:00,32.5,26.4,30.16,NNE,20,2.0,5.0,78,0.00,,,0.00,Wunderground v.1.15,2013-01-16 04:38:00,
2013-01-15 23:39:00,32.5,26.7,30.16,NNE,20,3.0,5.0,79,0.00,,,0.00,Wunderground v.1.15,2013-01-16 04:39:00,
2013-01-15 23:42:00,32.5,26.7,30.15,NNE,20,2.0,3.0,79,0.00,,,0.00,Wunderground v.1.15,2013-01-16 04:42:00,
2013-01-15 23:43:00,32.5,26.7,30.14,NNE,20,1.0,3.0,79,0.00,,,0.00,Wunderground v.1.15,2013-01-16 04:43:00,
2013-01-15 23:44:00,32.5,26.7,30.14,NE,35,4.0,5.0,79,0.00,,,0.00,Wunderground v.1.15,2013-01-16 04:44:00,
2013-01-15 23:47:00,32.4,26.6,30.14,NNE,15,4.0,5.0,79,0.00,,,0.00,Wunderground v.1.15,2013-01-16 04:47:00,
2013-01-15 23:48:00,32.5,26.7,30.14,NE,42,3.0,5.0,79,0.00,,,0.00,Wunderground v.1.15,2013-01-16 04:48:00,
2013-01-15 23:49:00,32.4,26.6,30.14,NE,42,3.0,5.0,79,0.00,,,0.00,Wunderground v.1.15,2013-01-16 04:49:00,
2013-01-15 23:52:00,32.4,26.6,30.13,NE,40,1.0,4.0,79,0.00,,,0.00,Wunderground v.1.15,2013-01-16 04:52:00,
2013-01-15 23:53:00,32.4,26.9,30.14,NE,37,5.0,5.0,80,0.00,,,0.00,Wunderground v.1.15,2013-01-16 04:53:00,
2013-01-15 23:54:00,32.4,26.9,30.14,North,355,6.0,7.0,80,0.00,,,0.00,Wunderground v.1.15,2013-01-16 04:54:00,
2013-01-15 23:58:00,32.3,26.8,30.15,North,355,0.0,7.0,80,0.00,,,0.00,Wunderground v.1.15,2013-01-16 04:58:00,
2013-01-15 23:59:00,32.3,26.8,30.15,North,360,2.0,7.0,80,0.00,,,0.00,Wunderground v.1.15,2013-01-16 04:59:00,